Wetterdaten: Mittwoch, 26.04.2017
Datum Zeit Temp. Aussen Temp. o. S. +5cm Feuchte Auss BlattFeu 1 Luftdruck Regen Sonnenschein Regendauer Solar Windben Empfang
26.04.2017 00:00 3,8 C 2,8 C 1,1 C 80 % 0 lf 1009,8 hPa 0,0 l/m 0 min 0 min 0 W/m 0,0 km/h (0 Bft) 97,87 %
26.04.2017 00:02 3,8 C 2,8 C 1,1 C 80 % 0 lf 1009,8 hPa 0,0 l/m 0 min 0 min 0 W/m 0,0 km/h (0 Bft) 9,09 %
26.04.2017 00:04 3,7 C 2,8 C 1,1 C 80 % 0 lf 1009,8 hPa 0,0 l/m 0 min 0 min 0 W/m 2,1 km/h (1 Bft) 100,00 %
26.04.2017 00:06 3,7 C 2,8 C 1,1 C 80 % 0 lf 1009,8 hPa 0,0 l/m 0 min 0 min 0 W/m 2,1 km/h (1 Bft) 97,87 %
26.04.2017 00:10 3,6 C 2,8 C 1,1 C 80 % 0 lf 1009,8 hPa 0,0 l/m 0 min 0 min 0 W/m 4,2 km/h (1 Bft) 97,56 %
26.04.2017 00:12 3,6 C 2,8 C 1,1 C 80 % 0 lf 1009,9 hPa 0,0 l/m 0 min 0 min 0 W/m 4,2 km/h (1 Bft) 92,31 %
26.04.2017 00:14 3,6 C 2,8 C 1,1 C 80 % 0 lf 1009,9 hPa 0,0 l/m 0 min 0 min 0 W/m 2,1 km/h (1 Bft) 100,00 %
26.04.2017 00:16 3,5 C 2,8 C 1,1 C 81 % 0 lf 1009,9 hPa 0,0 l/m 0 min 0 min 0 W/m 4,2 km/h (1 Bft) 94,34 %
26.04.2017 00:18 3,5 C 2,8 C 1,1 C 81 % 0 lf 1009,9 hPa 0,0 l/m 0 min 0 min 0 W/m 4,2 km/h (1 Bft) 100,00 %
26.04.2017 00:20 3,4 C 2,8 C 1,1 C 81 % 0 lf 1010,0 hPa 0,0 l/m 0 min 0 min 0 W/m 2,1 km/h (1 Bft) 97,83 %
26.04.2017 00:22 3,4 C 2,2 C 1,1 C 81 % 0 lf 1009,9 hPa 0,0 l/m 0 min 0 min 0 W/m 4,2 km/h (1 Bft) 97,87 %
26.04.2017 00:24 3,4 C 2,8 C 1,1 C 81 % 0 lf 1009,9 hPa 0,0 l/m 0 min 0 min 0 W/m 4,2 km/h (1 Bft) 97,87 %
26.04.2017 00:26 3,4 C 2,8 C 1,1 C 81 % 0 lf 1010,0 hPa 0,0 l/m 0 min 0 min 0 W/m 6,3 km/h (2 Bft) 97,87 %
26.04.2017 00:28 3,3 C 2,8 C 1,1 C 82 % 0 lf 1010,0 hPa 0,0 l/m 0 min 0 min 0 W/m 4,2 km/h (1 Bft) 90,24 %
26.04.2017 00:30 3,3 C 2,8 C 1,1 C 82 % 0 lf 1010,0 hPa 0,0 l/m 0 min 0 min 0 W/m 4,2 km/h (1 Bft) 95,74 %
26.04.2017 00:32 3,3 C 2,8 C 1,1 C 82 % 0 lf 1010,0 hPa 0,0 l/m 0 min 0 min 0 W/m 0,0 km/h (0 Bft) 96,15 %
26.04.2017 00:34 3,3 C 2,8 C 1,1 C 82 % 0 lf 1010,0 hPa 0,0 l/m 0 min 0 min 0 W/m 2,1 km/h (1 Bft) 97,87 %
26.04.2017 00:36 3,2 C 2,8 C 1,1 C 82 % 0 lf 1010,0 hPa 0,0 l/m 0 min 0 min 0 W/m 4,2 km/h (1 Bft) 95,74 %
26.04.2017 00:38 3,2 C 2,8 C 1,1 C 82 % 0 lf 1010,0 hPa 0,0 l/m 0 min 0 min 0 W/m 4,2 km/h (1 Bft) 97,87 %
26.04.2017 00:40 3,2 C 2,8 C 1,1 C 83 % 0 lf 1010,0 hPa 0,0 l/m 0 min 0 min 0 W/m 4,2 km/h (1 Bft) 97,87 %
26.04.2017 00:42 3,2 C 2,8 C 1,1 C 83 % 0 lf 1010,0 hPa 0,0 l/m 0 min 0 min 0 W/m 4,2 km/h (1 Bft) 97,87 %
26.04.2017 00:44 3,2 C 2,8 C 1,1 C 83 % 0 lf 1010,0 hPa 0,0 l/m 0 min 0 min 0 W/m 6,3 km/h (2 Bft) 95,65 %
26.04.2017 00:46 3,1 C 2,8 C 0,6 C 83 % 0 lf 1010,0 hPa 0,0 l/m 0 min 0 min 0 W/m 4,2 km/h (1 Bft) 97,87 %
26.04.2017 00:48 3,1 C 2,2 C 0,6 C 83 % 0 lf 1010,1 hPa 0,0 l/m 0 min 0 min 0 W/m 2,1 km/h (1 Bft) 100,00 %
26.04.2017 00:50 3,1 C 2,2 C 0,6 C 83 % 0 lf 1010,1 hPa 0,0 l/m 0 min 0 min 0 W/m 4,2 km/h (1 Bft) 100,00 %
26.04.2017 00:52 3,1 C 2,2 C 0,6 C 83 % 0 lf 1010,1 hPa 0,0 l/m 0 min 0 min 0 W/m 4,2 km/h (1 Bft) 100,00 %
26.04.2017 00:54 3,1 C 2,2 C 0,6 C 83 % 0 lf 1010,1 hPa 0,0 l/m 0 min 0 min 0 W/m 4,2 km/h (1 Bft) 100,00 %
26.04.2017 00:56 3,0 C 2,2 C 0,6 C 83 % 0 lf 1010,1 hPa 0,0 l/m 0 min 0 min 0 W/m 4,2 km/h (1 Bft) 95,74 %
26.04.2017 00:58 2,9 C 2,2 C 0,6 C 84 % 0 lf 1010,0 hPa 0,0 l/m 0 min 0 min 0 W/m 4,2 km/h (1 Bft) 100,00 %
26.04.2017 01:00 2,9 C 2,2 C 0,6 C 84 % 0 lf 1010,0 hPa 0,0 l/m 0 min 0 min 0 W/m 4,2 km/h (1 Bft) 100,00 %
26.04.2017 01:02 2,9 C 2,2 C 0,6 C 84 % 0 lf 1010,0 hPa 0,0 l/m 0 min 0 min 0 W/m 2,1 km/h (1 Bft) 100,00 %
26.04.2017 01:04 2,9 C 2,2 C 0,6 C 84 % 0 lf 1010,0 hPa 0,0 l/m 0 min 0 min 0 W/m 2,1 km/h (1 Bft) 95,74 %
26.04.2017 01:06 2,9 C 2,2 C 0,6 C 84 % 0 lf 1010,1 hPa 0,0 l/m 0 min 0 min 0 W/m 2,1 km/h (1 Bft) 100,00 %
26.04.2017 01:08 2,9 C 2,2 C 0,6 C 84 % 0 lf 1010,0 hPa 0,0 l/m 0 min 0 min 0 W/m 8,4 km/h (2 Bft) 97,87 %
26.04.2017 01:10 2,8 C 2,2 C 0,6 C 84 % 0 lf 1010,0 hPa 0,0 l/m 0 min 0 min 0 W/m 6,3 km/h (2 Bft) 100,00 %
26.04.2017 01:12 2,8 C 2,2 C 0,6 C 84 % 0 lf 1010,0 hPa 0,0 l/m 0 min 0 min 0 W/m 4,2 km/h (1 Bft) 97,87 %
26.04.2017 01:14 2,8 C 1,7 C 0,6 C 84 % 0 lf 1010,0 hPa 0,0 l/m 0 min 0 min 0 W/m 2,1 km/h (1 Bft) 100,00 %
26.04.2017 01:16 2,8 C 1,7 C 0,6 C 84 % 0 lf 1010,0 hPa 0,0 l/m 0 min 0 min 0 W/m 0,0 km/h (0 Bft) 97,87 %
26.04.2017 01:18 2,8 C 1,7 C 0,6 C 84 % 0 lf 1010,0 hPa 0,0 l/m 0 min 0 min 0 W/m 2,1 km/h (1 Bft) 100,00 %
26.04.2017 01:20 2,7 C 1,1 C 0,0 C 84 % 0 lf 1010,1 hPa 0,0 l/m 0 min 0 min 0 W/m 2,1 km/h (1 Bft) 97,87 %
26.04.2017 01:22 2,7 C 1,1 C 0,0 C 84 % 0 lf 1010,1 hPa 0,0 l/m 0 min 0 min 0 W/m 0,0 km/h (0 Bft) 97,87 %
26.04.2017 01:24 2,7 C 1,1 C 0,0 C 84 % 0 lf 1010,0 hPa 0,0 l/m 0 min 0 min 0 W/m 0,0 km/h (0 Bft) 93,62 %
26.04.2017 01:26 2,7 C 1,7 C 0,0 C 84 % 0 lf 1010,0 hPa 0,0 l/m 0 min 0 min 0 W/m 0,0 km/h (0 Bft) 97,87 %
26.04.2017 01:28 2,7 C 1,1 C 0,0 C 84 % 0 lf 1010,0 hPa 0,0 l/m 0 min 0 min 0 W/m 0,0 km/h (0 Bft) 97,87 %
26.04.2017 01:30 2,6 C 1,7 C 0,0 C 85 % 0 lf 1010,1 hPa 0,0 l/m 0 min 0 min 0 W/m 0,0 km/h (0 Bft) 97,83 %
26.04.2017 01:32 2,6 C 1,7 C 0,0 C 85 % 0 lf 1010,1 hPa 0,0 l/m 0 min 0 min 0 W/m 0,0 km/h (0 Bft) 95,74 %
26.04.2017 01:34 2,6 C 1,7 C 0,0 C 85 % 0 lf 1010,1 hPa 0,0 l/m 0 min 0 min 0 W/m 0,0 km/h (0 Bft) 97,87 %
26.04.2017 01:36 2,6 C 1,7 C 0,0 C 85 % 1 lf 1010,1 hPa 0,0 l/m 0 min 0 min 0 W/m 4,2 km/h (1 Bft) 95,74 %
26.04.2017 01:38 2,6 C 1,7 C 0,0 C 85 % 1 lf 1010,1 hPa 0,0 l/m 0 min 0 min 0 W/m 4,2 km/h (1 Bft) 95,74 %
26.04.2017 01:40 2,5 C 1,1 C 0,0 C 85 % 1 lf 1010,1 hPa 0,0 l/m 0 min 0 min 0 W/m 4,2 km/h (1 Bft) 93,62 %
26.04.2017 01:42 2,5 C 1,7 C 0,0 C 85 % 1 lf 1010,0 hPa 0,0 l/m 0 min 0 min 0 W/m 6,3 km/h (2 Bft) 91,30 %
26.04.2017 01:44 2,4 C 1,7 C 0,0 C 85 % 1 lf 1010,1 hPa 0,0 l/m 0 min 0 min 0 W/m 6,3 km/h (2 Bft) 97,87 %
26.04.2017 01:46 2,4 C 1,7 C 0,0 C 85 % 1 lf 1010,0 hPa 0,0 l/m 0 min 0 min 0 W/m 6,3 km/h (2 Bft) 91,49 %
26.04.2017 01:48 2,4 C 2,2 C 0,0 C 85 % 1 lf 1010,0 hPa 0,0 l/m 0 min 0 min 0 W/m 4,2 km/h (1 Bft) 93,62 %
26.04.2017 01:50 2,4 C 1,7 C 0,0 C 85 % 1 lf 1010,0 hPa 0,0 l/m 0 min 0 min 0 W/m 4,2 km/h (1 Bft) 93,62 %
26.04.2017 01:52 2,4 C 1,7 C 0,0 C 85 % 0 lf 1010,0 hPa 0,0 l/m 0 min 0 min 0 W/m 0,0 km/h (0 Bft) 91,30 %
26.04.2017 01:54 2,4 C 1,1 C 0,0 C 85 % 0 lf 1010,0 hPa 0,0 l/m 0 min 0 min 0 W/m 2,1 km/h (1 Bft) 89,36 %
26.04.2017 01:56 2,3 C 1,1 C 0,0 C 85 % 0 lf 1010,1 hPa 0,0 l/m 0 min 0 min 2 W/m 4,2 km/h (1 Bft) 91,49 %
26.04.2017 01:58 2,3 C 1,1 C 0,0 C 85 % 1 lf 1010,0 hPa 0,0 l/m 0 min 0 min 0 W/m 2,1 km/h (1 Bft) 91,49 %
26.04.2017 02:00 2,3 C 1,1 C 0,0 C 85 % 1 lf 1010,0 hPa 0,0 l/m 0 min 0 min 0 W/m 4,2 km/h (1 Bft) 91,49 %
26.04.2017 02:02 2,3 C 1,1 C 0,0 C 85 % 1 lf 1009,9 hPa 0,0 l/m 0 min 0 min 0 W/m 2,1 km/h (1 Bft) 91,49 %
26.04.2017 02:04 2,3 C 1,7 C 0,0 C 85 % 1 lf 1010,0 hPa 0,0 l/m 0 min 0 min 0 W/m 6,3 km/h (2 Bft) 89,13 %
26.04.2017 02:06 2,2 C 1,7 C 0,0 C 86 % 1 lf 1009,9 hPa 0,0 l/m 0 min 0 min 0 W/m 4,2 km/h (1 Bft) 91,49 %
26.04.2017 02:08 2,2 C 1,7 C 0,0 C 86 % 1 lf 1009,9 hPa 0,0 l/m 0 min 0 min 5 W/m 2,1 km/h (1 Bft) 91,49 %
26.04.2017 02:10 2,2 C 1,7 C 0,0 C 86 % 1 lf 1009,9 hPa 0,0 l/m 0 min 0 min 5 W/m 6,3 km/h (2 Bft) 89,36 %
26.04.2017 02:12 2,2 C 1,7 C 0,0 C 86 % 1 lf 1010,0 hPa 0,0 l/m 0 min 0 min 5 W/m 4,2 km/h (1 Bft) 93,62 %
26.04.2017 02:14 2,2 C 1,7 C 0,0 C 86 % 1 lf 1009,9 hPa 0,0 l/m 0 min 0 min 5 W/m 2,1 km/h (1 Bft) 91,49 %
26.04.2017 02:16 2,1 C 1,1 C 0,0 C 86 % 1 lf 1009,9 hPa 0,0 l/m 0 min 0 min 5 W/m 2,1 km/h (1 Bft) 86,96 %
26.04.2017 02:18 2,1 C 1,1 C -0,6 C 86 % 1 lf 1010,0 hPa 0,0 l/m 0 min 0 min 0 W/m 4,2 km/h (1 Bft) 91,49 %
26.04.2017 02:20 2,1 C 1,1 C -0,6 C 86 % 1 lf 1009,9 hPa 0,0 l/m 0 min 0 min 2 W/m 2,1 km/h (1 Bft) 95,74 %
26.04.2017 02:22 2,1 C 0,6 C -0,6 C 86 % 1 lf 1009,9 hPa 0,0 l/m 0 min 0 min 4 W/m 2,1 km/h (1 Bft) 95,74 %
26.04.2017 02:24 2,1 C 1,1 C -0,6 C 86 % 1 lf 1009,9 hPa 0,0 l/m 0 min 0 min 5 W/m 2,1 km/h (1 Bft) 93,62 %
26.04.2017 02:26 2,0 C 1,1 C -0,6 C 86 % 1 lf 1009,9 hPa 0,0 l/m 0 min 0 min 5 W/m 4,2 km/h (1 Bft) 95,74 %
26.04.2017 02:28 2,0 C 0,6 C -0,6 C 86 % 1 lf 1010,0 hPa 0,0 l/m 0 min 0 min 0 W/m 4,2 km/h (1 Bft) 93,48 %
26.04.2017 02:30 2,0 C 0,6 C -0,6 C 86 % 1 lf 1010,0 hPa 0,0 l/m 0 min 0 min 0 W/m 2,1 km/h (1 Bft) 95,74 %
26.04.2017 02:32 1,9 C 1,1 C -0,6 C 86 % 1 lf 1010,0 hPa 0,0 l/m 0 min 0 min 0 W/m 2,1 km/h (1 Bft) 93,62 %
26.04.2017 02:34 1,9 C 1,1 C -0,6 C 86 % 1 lf 1010,0 hPa 0,0 l/m 0 min 0 min 0 W/m 6,3 km/h (2 Bft) 95,74 %
26.04.2017 02:36 1,9 C 1,1 C -0,6 C 86 % 1 lf 1010,1 hPa 0,0 l/m 0 min 0 min 3 W/m 6,3 km/h (2 Bft) 97,87 %
26.04.2017 02:38 1,9 C 1,1 C -0,6 C 86 % 1 lf 1010,0 hPa 0,0 l/m 0 min 0 min 0 W/m 4,2 km/h (1 Bft) 97,87 %
26.04.2017 02:40 1,9 C 1,1 C -0,6 C 86 % 1 lf 1010,0 hPa 0,0 l/m 0 min 0 min 0 W/m 8,4 km/h (2 Bft) 95,65 %
26.04.2017 02:42 1,9 C 1,1 C -0,6 C 87 % 1 lf 1009,9 hPa 0,0 l/m 0 min 0 min 0 W/m 4,2 km/h (1 Bft) 97,87 %
26.04.2017 02:44 1,8 C 1,1 C -0,6 C 87 % 1 lf 1009,9 hPa 0,0 l/m 0 min 0 min 0 W/m 6,3 km/h (2 Bft) 97,87 %
26.04.2017 02:46 1,8 C 1,1 C -0,6 C 87 % 1 lf 1010,0 hPa 0,0 l/m 0 min 0 min 0 W/m 4,2 km/h (1 Bft) 95,74 %
26.04.2017 02:48 1,8 C 1,1 C -0,6 C 87 % 1 lf 1009,9 hPa 0,0 l/m 0 min 0 min 0 W/m 4,2 km/h (1 Bft) 97,87 %
26.04.2017 02:50 1,8 C 1,1 C -0,6 C 87 % 1 lf 1010,0 hPa 0,0 l/m 0 min 0 min 0 W/m 2,1 km/h (1 Bft) 95,74 %
26.04.2017 02:52 1,7 C 1,1 C -0,6 C 87 % 1 lf 1010,0 hPa 0,0 l/m 0 min 0 min 0 W/m 4,2 km/h (1 Bft) 97,83 %
26.04.2017 02:54 1,7 C 1,1 C -0,6 C 87 % 1 lf 1010,0 hPa 0,0 l/m 0 min 0 min 0 W/m 4,2 km/h (1 Bft) 97,87 %
26.04.2017 02:56 1,7 C 1,1 C -0,6 C 87 % 1 lf 1010,0 hPa 0,0 l/m 0 min 0 min 0 W/m 4,2 km/h (1 Bft) 97,87 %
26.04.2017 02:58 1,7 C 1,1 C -0,6 C 87 % 1 lf 1010,0 hPa 0,0 l/m 0 min 0 min 0 W/m 8,4 km/h (2 Bft) 97,87 %
26.04.2017 03:00 1,7 C 1,1 C -0,6 C 87 % 1 lf 1010,0 hPa 0,0 l/m 0 min 0 min 0 W/m 6,3 km/h (2 Bft) 97,87 %
26.04.2017 03:02 1,7 C 1,1 C -0,6 C 87 % 1 lf 1010,0 hPa 0,0 l/m 0 min 0 min 0 W/m 4,2 km/h (1 Bft) 93,48 %
26.04.2017 03:04 1,7 C 1,1 C -0,6 C 88 % 1 lf 1010,0 hPa 0,0 l/m 0 min 0 min 0 W/m 6,3 km/h (2 Bft) 97,87 %
26.04.2017 03:06 1,6 C 1,1 C -0,6 C 88 % 1 lf 1009,9 hPa 0,0 l/m 0 min 0 min 0 W/m 4,2 km/h (1 Bft) 95,74 %
26.04.2017 03:08 1,6 C 1,1 C -0,6 C 88 % 1 lf 1009,9 hPa 0,0 l/m 0 min 0 min 0 W/m 2,1 km/h (1 Bft) 95,74 %
26.04.2017 03:10 1,6 C 0,6 C -0,6 C 88 % 1 lf 1009,9 hPa 0,0 l/m 0 min 0 min 0 W/m 4,2 km/h (1 Bft) 97,87 %
26.04.2017 03:12 1,6 C 0,6 C -0,6 C 88 % 1 lf 1010,0 hPa 0,0 l/m 0 min 0 min 0 W/m 4,2 km/h (1 Bft) 97,87 %
26.04.2017 03:14 1,6 C 0,6 C -0,6 C 88 % 1 lf 1010,0 hPa 0,0 l/m 0 min 0 min 0 W/m 2,1 km/h (1 Bft) 95,65 %
26.04.2017 03:16 1,6 C 0,6 C -0,6 C 88 % 1 lf 1010,0 hPa 0,0 l/m 0 min 0 min 2 W/m 4,2 km/h (1 Bft) 97,87 %
26.04.2017 03:18 1,5 C 0,6 C -0,6 C 88 % 1 lf 1009,9 hPa 0,0 l/m 0 min 0 min 0 W/m 4,2 km/h (1 Bft) 93,62 %
26.04.2017 03:20 1,5 C 1,1 C -0,6 C 88 % 1 lf 1009,9 hPa 0,0 l/m 0 min 0 min 0 W/m 8,4 km/h (2 Bft) 95,74 %
26.04.2017 03:22 1,5 C 1,1 C -0,6 C 88 % 1 lf 1009,9 hPa 0,0 l/m 0 min 0 min 0 W/m 6,3 km/h (2 Bft) 97,87 %
26.04.2017 03:24 1,5 C 1,1 C -0,6 C 88 % 1 lf 1010,0 hPa 0,0 l/m 0 min 0 min 0 W/m 6,3 km/h (2 Bft) 100,00 %
26.04.2017 03:26 1,4 C 1,1 C -0,6 C 88 % 1 lf 1010,0 hPa 0,0 l/m 0 min 0 min 5 W/m 8,4 km/h (2 Bft) 100,00 %
26.04.2017 03:28 1,4 C 1,1 C -0,6 C 88 % 1 lf 1010,0 hPa 0,0 l/m 0 min 0 min 5 W/m 6,3 km/h (2 Bft) 100,00 %
26.04.2017 03:30 1,4 C 1,7 C 0,0 C 88 % 1 lf 1010,0 hPa 0,0 l/m 0 min 0 min 5 W/m 8,4 km/h (2 Bft) 97,87 %
26.04.2017 03:32 1,4 C 1,7 C 0,0 C 88 % 1 lf 1010,1 hPa 0,0 l/m 0 min 0 min 5 W/m 10,5 km/h (2 Bft) 100,00 %
26.04.2017 03:34 1,4 C 1,7 C 0,0 C 89 % 0 lf 1010,0 hPa 0,0 l/m 0 min 0 min 5 W/m 8,4 km/h (2 Bft) 100,00 %
26.04.2017 03:36 1,4 C 1,7 C 0,0 C 89 % 0 lf 1010,0 hPa 0,0 l/m 0 min 0 min 5 W/m 6,3 km/h (2 Bft) 95,74 %
26.04.2017 03:38 1,4 C 1,7 C 0,0 C 89 % 0 lf 1010,0 hPa 0,0 l/m 0 min 0 min 5 W/m 8,4 km/h (2 Bft) 100,00 %
26.04.2017 03:40 1,4 C 1,7 C 0,0 C 89 % 0 lf 1010,0 hPa 0,0 l/m 0 min 0 min 5 W/m 8,4 km/h (2 Bft) 95,74 %
26.04.2017 03:42 1,4 C 1,7 C 0,0 C 89 % 0 lf 1010,0 hPa 0,0 l/m 0 min 0 min 5 W/m 6,3 km/h (2 Bft) 97,87 %
26.04.2017 03:44 1,4 C 1,7 C 0,0 C 89 % 0 lf 1010,1 hPa 0,0 l/m 0 min 0 min 5 W/m 6,3 km/h (2 Bft) 97,87 %
26.04.2017 03:46 1,4 C 1,1 C 0,0 C 89 % 0 lf 1010,0 hPa 0,0 l/m 0 min 0 min 5 W/m 6,3 km/h (2 Bft) 100,00 %
26.04.2017 03:48 1,4 C 1,1 C -0,6 C 89 % 0 lf 1010,0 hPa 0,0 l/m 0 min 0 min 5 W/m 6,3 km/h (2 Bft) 95,74 %
26.04.2017 03:50 1,4 C 1,1 C -0,6 C 89 % 0 lf 1010,0 hPa 0,0 l/m 0 min 0 min 5 W/m 8,4 km/h (2 Bft) 95,65 %
26.04.2017 03:52 1,4 C 1,1 C -0,6 C 89 % 0 lf 1010,0 hPa 0,0 l/m 0 min 0 min 5 W/m 8,4 km/h (2 Bft) 97,87 %
26.04.2017 03:54 1,4 C 1,1 C -0,6 C 89 % 0 lf 1010,0 hPa 0,0 l/m 0 min 0 min 5 W/m 8,4 km/h (2 Bft) 95,74 %
26.04.2017 03:56 1,4 C 1,1 C -0,6 C 89 % 0 lf 1010,0 hPa 0,0 l/m 0 min 0 min 5 W/m 6,3 km/h (2 Bft) 95,74 %
26.04.2017 03:58 1,4 C 1,1 C -0,6 C 89 % 0 lf 1010,1 hPa 0,0 l/m 0 min 0 min 5 W/m 8,4 km/h (2 Bft) 97,87 %
26.04.2017 04:00 1,4 C 1,1 C 0,0 C 90 % 0 lf 1010,2 hPa 0,0 l/m 0 min 0 min 5 W/m 10,5 km/h (2 Bft) 95,65 %
26.04.2017 04:02 1,4 C 1,1 C 0,0 C 90 % 0 lf 1010,1 hPa 0,0 l/m 0 min 0 min 5 W/m 8,4 km/h (2 Bft) 100,00 %
26.04.2017 04:04 1,4 C 1,1 C 0,0 C 90 % 0 lf 1010,1 hPa 0,0 l/m 0 min 0 min 5 W/m 8,4 km/h (2 Bft) 97,83 %
26.04.2017 04:06 1,4 C 1,1 C 0,0 C 90 % 0 lf 1010,2 hPa 0,0 l/m 0 min 0 min 5 W/m 8,4 km/h (2 Bft) 100,00 %
26.04.2017 04:08 1,4 C 1,1 C 0,0 C 90 % 0 lf 1010,1 hPa 0,0 l/m 0 min 0 min 5 W/m 8,4 km/h (2 Bft) 95,74 %
26.04.2017 04:10 1,4 C 1,1 C 0,0 C 90 % 0 lf 1010,2 hPa 0,0 l/m 0 min 0 min 5 W/m 8,4 km/h (2 Bft) 95,74 %
26.04.2017 04:12 1,4 C 1,1 C -0,6 C 90 % 0 lf 1010,2 hPa 0,0 l/m 0 min 0 min 5 W/m 6,3 km/h (2 Bft) 100,00 %
26.04.2017 04:14 1,4 C 1,1 C 0,0 C 90 % 0 lf 1010,2 hPa 0,0 l/m 0 min 0 min 5 W/m 8,4 km/h (2 Bft) 93,48 %
26.04.2017 04:16 1,4 C 1,1 C -0,6 C 90 % 0 lf 1010,1 hPa 0,0 l/m 0 min 0 min 5 W/m 8,4 km/h (2 Bft) 92,68 %
26.04.2017 04:18 1,4 C 1,1 C -0,6 C 90 % 0 lf 1010,2 hPa 0,0 l/m 0 min 0 min 5 W/m 6,3 km/h (2 Bft) 95,74 %
26.04.2017 04:20 1,4 C 1,7 C -0,6 C 90 % 0 lf 1010,2 hPa 0,0 l/m 0 min 0 min 5 W/m 10,5 km/h (2 Bft) 97,87 %
26.04.2017 04:22 1,3 C 1,1 C -0,6 C 90 % 0 lf 1010,1 hPa 0,0 l/m 0 min 0 min 5 W/m 8,4 km/h (2 Bft) 95,74 %
26.04.2017 04:24 1,3 C 1,1 C -0,6 C 90 % 0 lf 1010,2 hPa 0,0 l/m 0 min 0 min 5 W/m 6,3 km/h (2 Bft) 97,87 %
26.04.2017 04:26 1,3 C 1,1 C -0,6 C 90 % 0 lf 1010,1 hPa 0,0 l/m 0 min 0 min 5 W/m 8,4 km/h (2 Bft) 97,83 %
26.04.2017 04:28 1,3 C 1,1 C -0,6 C 90 % 0 lf 1010,1 hPa 0,0 l/m 0 min 0 min 5 W/m 6,3 km/h (2 Bft) 95,74 %
26.04.2017 04:30 1,3 C 1,1 C -0,6 C 90 % 0 lf 1010,1 hPa 0,0 l/m 0 min 0 min 5 W/m 6,3 km/h (2 Bft) 97,87 %
26.04.2017 04:32 1,3 C 0,6 C -0,6 C 90 % 0 lf 1010,2 hPa 0,0 l/m 0 min 0 min 5 W/m 6,3 km/h (2 Bft) 96,23 %
26.04.2017 04:34 1,3 C 0,6 C -0,6 C 90 % 0 lf 1010,1 hPa 0,0 l/m 0 min 0 min 5 W/m 8,4 km/h (2 Bft) 95,74 %
26.04.2017 04:36 1,3 C 0,6 C -0,6 C 90 % 0 lf 1010,1 hPa 0,0 l/m 0 min 0 min 5 W/m 6,3 km/h (2 Bft) 97,87 %
26.04.2017 04:38 1,3 C 0,6 C -0,6 C 90 % 0 lf 1010,1 hPa 0,0 l/m 0 min 0 min 5 W/m 6,3 km/h (2 Bft) 97,83 %
26.04.2017 04:40 1,3 C 0,6 C -0,6 C 90 % 0 lf 1010,1 hPa 0,0 l/m 0 min 0 min 5 W/m 6,3 km/h (2 Bft) 95,74 %
26.04.2017 04:42 1,3 C 0,6 C -0,6 C 90 % 0 lf 1010,1 hPa 0,0 l/m 0 min 0 min 5 W/m 6,3 km/h (2 Bft) 95,74 %
26.04.2017 04:44 1,2 C 1,1 C -0,6 C 90 % 0 lf 1010,1 hPa 0,0 l/m 0 min 0 min 5 W/m 6,3 km/h (2 Bft) 91,49 %
26.04.2017 04:46 1,2 C 1,1 C -0,6 C 90 % 0 lf 1010,1 hPa 0,0 l/m 0 min 0 min 5 W/m 4,2 km/h (1 Bft) 97,83 %
26.04.2017 04:48 1,2 C 1,1 C -0,6 C 90 % 0 lf 1010,0 hPa 0,0 l/m 0 min 0 min 5 W/m 4,2 km/h (1 Bft) 97,87 %
26.04.2017 04:50 1,2 C 1,1 C 0,0 C 90 % 0 lf 1009,9 hPa 0,0 l/m 0 min 0 min 5 W/m 4,2 km/h (1 Bft) 97,87 %
26.04.2017 04:52 1,2 C 1,1 C 0,0 C 90 % 0 lf 1010,0 hPa 0,0 l/m 0 min 0 min 5 W/m 6,3 km/h (2 Bft) 95,74 %
26.04.2017 04:54 1,2 C 1,1 C -0,6 C 90 % 0 lf 1009,9 hPa 0,0 l/m 0 min 0 min 5 W/m 6,3 km/h (2 Bft) 97,87 %
26.04.2017 04:56 1,2 C 1,1 C 0,0 C 90 % 0 lf 1009,9 hPa 0,0 l/m 0 min 0 min 5 W/m 6,3 km/h (2 Bft) 97,87 %
26.04.2017 04:58 1,2 C 1,1 C 0,0 C 90 % 0 lf 1009,9 hPa 0,0 l/m 0 min 0 min 5 W/m 8,4 km/h (2 Bft) 97,83 %
26.04.2017 05:00 1,2 C 1,1 C -0,6 C 90 % 0 lf 1009,9 hPa 0,0 l/m 0 min 0 min 5 W/m 8,4 km/h (2 Bft) 97,22 %
26.04.2017 05:02 1,2 C 1,7 C 0,0 C 90 % 0 lf 1010,0 hPa 0,0 l/m 0 min 0 min 5 W/m 10,5 km/h (2 Bft) 95,74 %
26.04.2017 05:04 1,2 C 1,7 C 0,0 C 90 % 0 lf 1010,0 hPa 0,0 l/m 0 min 0 min 5 W/m 10,5 km/h (2 Bft) 98,08 %
26.04.2017 05:06 1,2 C 1,7 C 0,0 C 90 % 0 lf 1009,9 hPa 0,0 l/m 0 min 0 min 5 W/m 10,5 km/h (2 Bft) 97,87 %
26.04.2017 05:08 1,2 C 1,7 C 0,0 C 90 % 0 lf 1009,9 hPa 0,0 l/m 0 min 0 min 5 W/m 6,3 km/h (2 Bft) 97,87 %
26.04.2017 05:10 1,2 C 1,7 C 0,0 C 90 % 0 lf 1009,9 hPa 0,0 l/m 0 min 0 min 5 W/m 10,5 km/h (2 Bft) 95,74 %
26.04.2017 05:12 1,2 C 1,7 C 0,6 C 90 % 0 lf 1009,9 hPa 0,0 l/m 0 min 0 min 5 W/m 10,5 km/h (2 Bft) 93,48 %
26.04.2017 05:14 1,2 C 1,7 C 0,6 C 90 % 0 lf 1009,9 hPa 0,0 l/m 0 min 0 min 5 W/m 10,5 km/h (2 Bft) 97,87 %
26.04.2017 05:16 1,3 C 1,7 C 0,6 C 90 % 0 lf 1009,9 hPa 0,0 l/m 0 min 0 min 5 W/m 10,5 km/h (2 Bft) 97,87 %
26.04.2017 05:18 1,3 C 1,7 C 0,6 C 90 % 0 lf 1009,9 hPa 0,0 l/m 0 min 0 min 5 W/m 10,5 km/h (2 Bft) 97,87 %
26.04.2017 05:20 1,3 C 1,7 C 0,6 C 90 % 0 lf 1009,8 hPa 0,0 l/m 0 min 0 min 5 W/m 8,4 km/h (2 Bft) 97,87 %
26.04.2017 05:22 1,3 C 2,2 C 0,6 C 90 % 0 lf 1009,9 hPa 0,0 l/m 0 min 0 min 5 W/m 10,5 km/h (2 Bft) 97,87 %
26.04.2017 05:24 1,3 C 2,2 C 0,6 C 90 % 0 lf 1009,9 hPa 0,0 l/m 0 min 0 min 5 W/m 8,4 km/h (2 Bft) 97,83 %
26.04.2017 05:26 1,3 C 2,2 C 0,6 C 90 % 0 lf 1009,9 hPa 0,0 l/m 0 min 0 min 5 W/m 10,5 km/h (2 Bft) 95,74 %
26.04.2017 05:28 1,3 C 1,7 C 0,6 C 90 % 0 lf 1009,9 hPa 0,0 l/m 0 min 0 min 5 W/m 10,5 km/h (2 Bft) 97,87 %
26.04.2017 05:30 1,3 C 1,7 C 0,6 C 90 % 0 lf 1009,9 hPa 0,0 l/m 0 min 0 min 5 W/m 8,4 km/h (2 Bft) 95,74 %
26.04.2017 05:32 1,4 C 1,7 C 0,6 C 90 % 0 lf 1009,8 hPa 0,0 l/m 0 min 0 min 5 W/m 8,4 km/h (2 Bft) 95,74 %
26.04.2017 05:34 1,4 C 1,7 C 0,6 C 90 % 0 lf 1009,8 hPa 0,0 l/m 0 min 0 min 5 W/m 8,4 km/h (2 Bft) 95,74 %
26.04.2017 05:36 1,4 C 1,7 C 0,6 C 90 % 0 lf 1009,8 hPa 0,0 l/m 0 min 0 min 5 W/m 10,5 km/h (2 Bft) 97,83 %
26.04.2017 05:38 1,4 C 1,7 C 0,6 C 90 % 0 lf 1009,8 hPa 0,0 l/m 0 min 0 min 5 W/m 12,6 km/h (3 Bft) 97,87 %
26.04.2017 05:40 1,4 C 1,7 C 0,6 C 90 % 0 lf 1009,9 hPa 0,0 l/m 0 min 0 min 5 W/m 8,4 km/h (2 Bft) 97,87 %
26.04.2017 05:42 1,4 C 1,7 C 0,6 C 90 % 0 lf 1009,8 hPa 0,0 l/m 0 min 0 min 5 W/m 8,4 km/h (2 Bft) 97,87 %
26.04.2017 05:44 1,4 C 1,7 C 0,0 C 90 % 0 lf 1009,8 hPa 0,0 l/m 0 min 0 min 5 W/m 8,4 km/h (2 Bft) 97,87 %
26.04.2017 05:46 1,4 C 1,7 C 0,0 C 90 % 0 lf 1009,7 hPa 0,0 l/m 0 min 0 min 5 W/m 10,5 km/h (2 Bft) 95,65 %
26.04.2017 05:48 1,4 C 1,7 C 0,0 C 90 % 0 lf 1009,7 hPa 0,0 l/m 0 min 0 min 5 W/m 10,5 km/h (2 Bft) 100,00 %
26.04.2017 05:50 1,4 C 1,1 C 0,0 C 90 % 0 lf 1009,7 hPa 0,0 l/m 0 min 0 min 5 W/m 6,3 km/h (2 Bft) 97,87 %
26.04.2017 05:52 1,4 C 1,1 C 0,0 C 90 % 0 lf 1009,7 hPa 0,0 l/m 0 min 0 min 5 W/m 10,5 km/h (2 Bft) 95,74 %
26.04.2017 05:54 1,4 C 1,1 C 0,0 C 90 % 0 lf 1009,8 hPa 0,0 l/m 0 min 0 min 5 W/m 10,5 km/h (2 Bft) 97,87 %
26.04.2017 05:56 1,4 C 1,1 C 0,0 C 90 % 0 lf 1009,7 hPa 0,0 l/m 0 min 0 min 5 W/m 12,6 km/h (3 Bft) 95,74 %
26.04.2017 05:58 1,4 C 1,7 C 0,0 C 90 % 0 lf 1009,7 hPa 0,0 l/m 0 min 0 min 5 W/m 10,5 km/h (2 Bft) 97,83 %
26.04.2017 06:00 1,4 C 1,7 C 0,0 C 90 % 0 lf 1009,7 hPa 0,0 l/m 0 min 0 min 5 W/m 8,4 km/h (2 Bft) 97,87 %
26.04.2017 06:02 1,4 C 1,7 C 0,0 C 90 % 0 lf 1009,7 hPa 0,0 l/m 0 min 0 min 5 W/m 12,6 km/h (3 Bft) 97,87 %
26.04.2017 06:04 1,4 C 1,7 C 0,0 C 90 % 0 lf 1009,7 hPa 0,0 l/m 0 min 0 min 5 W/m 10,5 km/h (2 Bft) 97,87 %
26.04.2017 06:06 1,4 C 1,7 C 0,0 C 90 % 0 lf 1009,8 hPa 0,0 l/m 0 min 0 min 5 W/m 12,6 km/h (3 Bft) 100,00 %
26.04.2017 06:08 1,4 C 1,7 C 0,0 C 90 % 0 lf 1009,8 hPa 0,0 l/m 0 min 0 min 5 W/m 12,6 km/h (3 Bft) 95,74 %
26.04.2017 06:10 1,4 C 1,7 C 0,0 C 89 % 0 lf 1009,8 hPa 0,0 l/m 0 min 0 min 6 W/m 12,6 km/h (3 Bft) 97,83 %
26.04.2017 06:12 1,4 C 1,7 C 0,0 C 89 % 0 lf 1009,8 hPa 0,0 l/m 0 min 0 min 7 W/m 10,5 km/h (2 Bft) 100,00 %
26.04.2017 06:14 1,4 C 1,1 C 0,0 C 89 % 0 lf 1009,8 hPa 0,0 l/m 0 min 0 min 7 W/m 8,4 km/h (2 Bft) 100,00 %
26.04.2017 06:16 1,4 C 1,1 C 0,0 C 89 % 0 lf 1009,8 hPa 0,0 l/m 0 min 0 min 7 W/m 6,3 km/h (2 Bft) 100,00 %
26.04.2017 06:18 1,4 C 1,1 C 0,0 C 89 % 0 lf 1009,8 hPa 0,0 l/m 0 min 0 min 7 W/m 8,4 km/h (2 Bft) 97,87 %
26.04.2017 06:20 1,4 C 1,1 C 0,0 C 89 % 0 lf 1009,8 hPa 0,0 l/m 0 min 0 min 7 W/m 8,4 km/h (2 Bft) 100,00 %
26.04.2017 06:22 1,4 C 1,1 C 0,0 C 89 % 0 lf 1009,8 hPa 0,0 l/m 0 min 0 min 9 W/m 10,5 km/h (2 Bft) 97,87 %
26.04.2017 06:24 1,4 C 1,1 C 0,0 C 89 % 0 lf 1009,8 hPa 0,0 l/m 0 min 0 min 9 W/m 12,6 km/h (3 Bft) 100,00 %
26.04.2017 06:26 1,4 C 1,1 C 0,0 C 89 % 0 lf 1009,9 hPa 0,0 l/m 0 min 0 min 9 W/m 8,4 km/h (2 Bft) 95,74 %
26.04.2017 06:28 1,4 C 1,1 C 0,0 C 89 % 0 lf 1009,9 hPa 0,0 l/m 0 min 0 min 11 W/m 10,5 km/h (2 Bft) 97,87 %
26.04.2017 06:30 1,4 C 1,1 C 0,0 C 89 % 0 lf 1009,8 hPa 0,0 l/m 0 min 0 min 11 W/m 8,4 km/h (2 Bft) 97,87 %
26.04.2017 06:32 1,4 C 1,1 C 0,0 C 89 % 0 lf 1009,9 hPa 0,0 l/m 0 min 0 min 12 W/m 8,4 km/h (2 Bft) 97,83 %
26.04.2017 06:34 1,4 C 1,1 C 0,0 C 88 % 0 lf 1009,9 hPa 0,0 l/m 0 min 0 min 12 W/m 10,5 km/h (2 Bft) 95,74 %
26.04.2017 06:36 1,4 C 1,1 C 0,0 C 88 % 0 lf 1009,9 hPa 0,0 l/m 0 min 0 min 14 W/m 6,3 km/h (2 Bft) 97,87 %
26.04.2017 06:38 1,4 C 1,1 C 0,0 C 88 % 0 lf 1009,8 hPa 0,0 l/m 0 min 0 min 14 W/m 8,4 km/h (2 Bft) 93,62 %
26.04.2017 06:40 1,3 C 1,1 C 0,0 C 88 % 0 lf 1009,8 hPa 0,0 l/m 0 min 0 min 16 W/m 10,5 km/h (2 Bft) 97,87 %
26.04.2017 06:42 1,3 C 1,7 C 0,0 C 88 % 0 lf 1009,9 hPa 0,0 l/m 0 min 0 min 16 W/m 10,5 km/h (2 Bft) 97,87 %
26.04.2017 06:44 1,3 C 1,7 C 0,0 C 88 % 0 lf 1009,9 hPa 0,0 l/m 0 min 0 min 18 W/m 10,5 km/h (2 Bft) 97,83 %
26.04.2017 06:46 1,3 C 1,7 C 0,0 C 88 % 0 lf 1009,9 hPa 0,0 l/m 0 min 0 min 18 W/m 8,4 km/h (2 Bft) 97,87 %
26.04.2017 06:48 1,3 C 1,7 C 0,0 C 88 % 0 lf 1009,8 hPa 0,0 l/m 0 min 0 min 19 W/m 10,5 km/h (2 Bft) 95,74 %
26.04.2017 06:50 1,3 C 1,1 C 0,0 C 88 % 0 lf 1009,8 hPa 0,0 l/m 0 min 0 min 20 W/m 10,5 km/h (2 Bft) 93,62 %
26.04.2017 06:52 1,3 C 1,7 C 0,0 C 88 % 0 lf 1009,9 hPa 0,0 l/m 0 min 0 min 23 W/m 14,6 km/h (3 Bft) 93,62 %
26.04.2017 06:54 1,3 C 1,7 C 0,0 C 88 % 0 lf 1009,9 hPa 0,0 l/m 0 min 0 min 24 W/m 12,6 km/h (3 Bft) 93,48 %
26.04.2017 06:56 1,4 C 1,7 C 0,0 C 88 % 0 lf 1009,9 hPa 0,0 l/m 0 min 0 min 30 W/m 12,6 km/h (3 Bft) 95,74 %
26.04.2017 06:58 1,4 C 1,7 C 0,0 C 88 % 0 lf 1009,9 hPa 0,0 l/m 0 min 0 min 41 W/m 12,6 km/h (3 Bft) 95,74 %
26.04.2017 07:00 1,4 C 1,7 C 0,0 C 88 % 0 lf 1009,9 hPa 0,0 l/m 0 min 0 min 47 W/m 10,5 km/h (2 Bft) 95,74 %
26.04.2017 07:02 1,4 C 1,7 C 0,0 C 88 % 0 lf 1010,0 hPa 0,0 l/m 2 min 0 min 52 W/m 10,5 km/h (2 Bft) 95,74 %
26.04.2017 07:04 1,4 C 1,7 C 0,0 C 88 % 0 lf 1010,0 hPa 0,0 l/m 2 min 0 min 57 W/m 10,5 km/h (2 Bft) 93,62 %
26.04.2017 07:06 1,4 C 1,7 C 0,0 C 88 % 0 lf 1010,0 hPa 0,0 l/m 2 min 0 min 63 W/m 12,6 km/h (3 Bft) 97,87 %
26.04.2017 07:08 1,4 C 1,7 C 0,0 C 88 % 0 lf 1010,0 hPa 0,0 l/m 2 min 0 min 60 W/m 14,6 km/h (3 Bft) 97,83 %
26.04.2017 07:10 1,4 C 1,7 C 0,6 C 88 % 0 lf 1010,0 hPa 0,0 l/m 2 min 0 min 74 W/m 10,5 km/h (2 Bft) 95,74 %
26.04.2017 07:12 1,4 C 1,7 C 0,6 C 88 % 0 lf 1010,0 hPa 0,0 l/m 2 min 0 min 80 W/m 10,5 km/h (2 Bft) 93,62 %
26.04.2017 07:14 1,4 C 1,7 C 0,6 C 88 % 0 lf 1010,1 hPa 0,0 l/m 2 min 0 min 86 W/m 12,6 km/h (3 Bft) 95,74 %
26.04.2017 07:16 1,4 C 2,2 C 0,6 C 88 % 0 lf 1010,1 hPa 0,0 l/m 2 min 0 min 93 W/m 12,6 km/h (3 Bft) 97,87 %
26.04.2017 07:18 1,4 C 2,2 C 0,6 C 88 % 0 lf 1010,1 hPa 0,0 l/m 2 min 0 min 98 W/m 10,5 km/h (2 Bft) 95,65 %
26.04.2017 07:20 1,5 C 2,2 C 0,6 C 88 % 0 lf 1010,1 hPa 0,0 l/m 2 min 0 min 103 W/m 10,5 km/h (2 Bft) 95,74 %
26.04.2017 07:22 1,5 C 2,2 C 0,6 C 89 % 0 lf 1010,1 hPa 0,0 l/m 2 min 0 min 107 W/m 12,6 km/h (3 Bft) 95,74 %
26.04.2017 07:24 1,5 C 2,2 C 0,6 C 89 % 0 lf 1010,1 hPa 0,0 l/m 2 min 0 min 108 W/m 12,6 km/h (3 Bft) 97,87 %
26.04.2017 07:26 1,6 C 2,2 C 0,6 C 89 % 0 lf 1010,2 hPa 0,0 l/m 2 min 0 min 104 W/m 12,6 km/h (3 Bft) 95,74 %
26.04.2017 07:28 1,6 C 2,2 C 0,6 C 89 % 0 lf 1010,2 hPa 0,0 l/m 2 min 0 min 134 W/m 14,6 km/h (3 Bft) 95,74 %
26.04.2017 07:30 1,6 C 2,2 C 0,6 C 89 % 0 lf 1010,2 hPa 0,0 l/m 2 min 0 min 144 W/m 10,5 km/h (2 Bft) 95,65 %
26.04.2017 07:32 1,6 C 2,2 C 0,6 C 89 % 0 lf 1010,3 hPa 0,0 l/m 2 min 0 min 141 W/m 14,6 km/h (3 Bft) 91,49 %
26.04.2017 07:34 1,7 C 2,8 C 1,1 C 89 % 0 lf 1010,3 hPa 0,0 l/m 2 min 0 min 152 W/m 12,6 km/h (3 Bft) 97,87 %
26.04.2017 07:36 1,7 C 2,8 C 1,1 C 89 % 0 lf 1010,3 hPa 0,0 l/m 0 min 0 min 93 W/m 14,6 km/h (3 Bft) 95,74 %
26.04.2017 07:38 1,7 C 2,8 C 1,1 C 89 % 0 lf 1010,3 hPa 0,0 l/m 2 min 0 min 105 W/m 10,5 km/h (2 Bft) 95,74 %
26.04.2017 07:40 1,8 C 2,8 C 1,1 C 88 % 0 lf 1010,3 hPa 0,0 l/m 2 min 0 min 123 W/m 10,5 km/h (2 Bft) 95,74 %
26.04.2017 07:42 1,8 C 2,8 C 1,1 C 88 % 0 lf 1010,4 hPa 0,0 l/m 0 min 0 min 82 W/m 12,6 km/h (3 Bft) 93,48 %
26.04.2017 07:44 1,8 C 2,8 C 1,1 C 88 % 0 lf 1010,4 hPa 0,0 l/m 0 min 0 min 71 W/m 10,5 km/h (2 Bft) 95,74 %
26.04.2017 07:46 1,8 C 2,8 C 1,1 C 89 % 0 lf 1010,4 hPa 0,0 l/m 0 min 0 min 90 W/m 8,4 km/h (2 Bft) 93,62 %
26.04.2017 07:48 1,9 C 2,8 C 1,1 C 89 % 0 lf 1010,4 hPa 0,0 l/m 2 min 0 min 240 W/m 10,5 km/h (2 Bft) 95,74 %
26.04.2017 07:50 1,9 C 3,3 C 1,7 C 89 % 0 lf 1010,3 hPa 0,0 l/m 2 min 0 min 173 W/m 8,4 km/h (2 Bft) 95,74 %
26.04.2017 07:52 1,9 C 3,3 C 1,7 C 89 % 0 lf 1010,4 hPa 0,0 l/m 2 min 0 min 119 W/m 10,5 km/h (2 Bft) 95,74 %
26.04.2017 07:54 2,0 C 3,3 C 1,7 C 89 % 0 lf 1010,5 hPa 0,0 l/m 2 min 0 min 139 W/m 10,5 km/h (2 Bft) 97,83 %
26.04.2017 07:56 2,0 C 3,3 C 1,7 C 89 % 0 lf 1010,4 hPa 0,0 l/m 2 min 0 min 213 W/m 12,6 km/h (3 Bft) 95,74 %
26.04.2017 07:58 2,1 C 3,3 C 1,7 C 89 % 0 lf 1010,4 hPa 0,0 l/m 2 min 0 min 252 W/m 12,6 km/h (3 Bft) 95,74 %
26.04.2017 08:00 2,1 C 3,3 C 1,7 C 89 % 0 lf 1010,5 hPa 0,0 l/m 2 min 0 min 216 W/m 12,6 km/h (3 Bft) 95,74 %
26.04.2017 08:02 2,2 C 3,3 C 1,7 C 89 % 0 lf 1010,5 hPa 0,0 l/m 2 min 0 min 205 W/m 14,6 km/h (3 Bft) 93,62 %
26.04.2017 08:04 2,2 C 3,3 C 1,7 C 89 % 0 lf 1010,4 hPa 0,0 l/m 2 min 0 min 244 W/m 12,6 km/h (3 Bft) 93,48 %
26.04.2017 08:06 2,2 C 3,3 C 2,2 C 89 % 0 lf 1010,5 hPa 0,0 l/m 2 min 0 min 246 W/m 8,4 km/h (2 Bft) 93,62 %
26.04.2017 08:08 2,3 C 3,9 C 2,2 C 89 % 0 lf 1010,6 hPa 0,0 l/m 2 min 0 min 266 W/m 12,6 km/h (3 Bft) 93,62 %
26.04.2017 08:10 2,3 C 4,4 C 2,8 C 89 % 0 lf 1010,6 hPa 0,0 l/m 2 min 0 min 294 W/m 16,7 km/h (3 Bft) 95,74 %
26.04.2017 08:12 2,4 C 4,4 C 2,8 C 89 % 0 lf 1010,5 hPa 0,0 l/m 2 min 0 min 170 W/m 12,6 km/h (3 Bft) 95,74 %
26.04.2017 08:14 2,5 C 4,4 C 2,8 C 89 % 0 lf 1010,5 hPa 0,0 l/m 2 min 0 min 225 W/m 16,7 km/h (3 Bft) 95,74 %
26.04.2017 08:16 2,6 C 5,0 C 3,3 C 89 % 0 lf 1010,4 hPa 0,0 l/m 2 min 0 min 276 W/m 10,5 km/h (2 Bft) 95,65 %
26.04.2017 08:18 2,7 C 5,0 C 3,3 C 89 % 0 lf 1010,5 hPa 0,0 l/m 2 min 0 min 353 W/m 12,6 km/h (3 Bft) 95,74 %
26.04.2017 08:20 2,8 C 5,6 C 3,9 C 89 % 0 lf 1010,6 hPa 0,0 l/m 2 min 0 min 378 W/m 10,5 km/h (2 Bft) 95,74 %
26.04.2017 08:22 2,9 C 5,6 C 4,4 C 89 % 0 lf 1010,5 hPa 0,0 l/m 2 min 0 min 364 W/m 8,4 km/h (2 Bft) 95,74 %
26.04.2017 08:24 3,0 C 5,6 C 4,4 C 89 % 0 lf 1010,7 hPa 0,0 l/m 2 min 0 min 221 W/m 14,6 km/h (3 Bft) 95,74 %
26.04.2017 08:26 3,1 C 6,1 C 4,4 C 89 % 0 lf 1010,6 hPa 0,0 l/m 2 min 0 min 223 W/m 10,5 km/h (2 Bft) 95,74 %
26.04.2017 08:28 3,2 C 6,1 C 5,0 C 90 % 0 lf 1010,6 hPa 0,0 l/m 0 min 0 min 156 W/m 10,5 km/h (2 Bft) 97,83 %
26.04.2017 08:30 3,3 C 6,1 C 5,0 C 90 % 0 lf 1010,7 hPa 0,0 l/m 0 min 0 min 140 W/m 14,6 km/h (3 Bft) 95,74 %
26.04.2017 08:32 3,4 C 6,1 C 5,0 C 90 % 0 lf 1010,7 hPa 0,0 l/m 0 min 0 min 136 W/m 10,5 km/h (2 Bft) 97,87 %
26.04.2017 08:34 3,6 C 5,6 C 5,0 C 90 % 0 lf 1010,7 hPa 0,0 l/m 0 min 0 min 135 W/m 12,6 km/h (3 Bft) 97,87 %
26.04.2017 08:36 3,6 C 5,6 C 4,4 C 90 % 0 lf 1010,7 hPa 0,0 l/m 0 min 0 min 125 W/m 14,6 km/h (3 Bft) 97,87 %
26.04.2017 08:38 3,7 C 5,6 C 4,4 C 89 % 0 lf 1010,7 hPa 0,0 l/m 0 min 0 min 119 W/m 12,6 km/h (3 Bft) 97,87 %
26.04.2017 08:40 3,7 C 5,6 C 4,4 C 89 % 0 lf 1010,7 hPa 0,0 l/m 0 min 0 min 122 W/m 14,6 km/h (3 Bft) 95,65 %
26.04.2017 08:42 3,8 C 5,6 C 4,4 C 89 % 0 lf 1010,7 hPa 0,0 l/m 0 min 0 min 127 W/m 16,7 km/h (3 Bft) 97,87 %
26.04.2017 08:44 3,8 C 5,6 C 4,4 C 89 % 0 lf 1010,8 hPa 0,0 l/m 0 min 0 min 138 W/m 12,6 km/h (3 Bft) 97,87 %
26.04.2017 08:46 3,9 C 5,6 C 4,4 C 89 % 0 lf 1010,8 hPa 0,0 l/m 0 min 0 min 148 W/m 12,6 km/h (3 Bft) 95,74 %
26.04.2017 08:48 3,9 C 6,1 C 5,0 C 89 % 0 lf 1010,8 hPa 0,0 l/m 0 min 0 min 147 W/m 12,6 km/h (3 Bft) 100,00 %
26.04.2017 08:50 3,9 C 5,6 C 5,0 C 88 % 0 lf 1010,7 hPa 0,0 l/m 0 min 0 min 142 W/m 10,5 km/h (2 Bft) 100,00 %
26.04.2017 08:52 4,0 C 5,6 C 5,0 C 88 % 0 lf 1010,7 hPa 0,0 l/m 0 min 0 min 133 W/m 10,5 km/h (2 Bft) 100,00 %
26.04.2017 08:54 4,1 C 6,1 C 5,0 C 88 % 0 lf 1010,8 hPa 0,0 l/m 0 min 0 min 140 W/m 8,4 km/h (2 Bft) 97,87 %
26.04.2017 08:56 4,1 C 6,1 C 5,0 C 88 % 0 lf 1010,8 hPa 0,0 l/m 0 min 0 min 167 W/m 8,4 km/h (2 Bft) 100,00 %
26.04.2017 08:58 4,2 C 6,1 C 5,6 C 88 % 0 lf 1010,9 hPa 0,0 l/m 0 min 0 min 172 W/m 10,5 km/h (2 Bft) 93,62 %
26.04.2017 09:00 4,2 C 6,7 C 5,6 C 88 % 0 lf 1010,9 hPa 0,0 l/m 0 min 0 min 175 W/m 12,6 km/h (3 Bft) 95,74 %
26.04.2017 09:02 4,2 C 6,7 C 5,6 C 88 % 0 lf 1010,9 hPa 0,0 l/m 0 min 0 min 188 W/m 12,6 km/h (3 Bft) 97,87 %
26.04.2017 09:04 4,3 C 7,2 C 5,6 C 88 % 0 lf 1010,9 hPa 0,0 l/m 0 min 0 min 202 W/m 8,4 km/h (2 Bft) 97,83 %
26.04.2017 09:06 4,3 C 7,2 C 6,1 C 88 % 0 lf 1010,9 hPa 0,0 l/m 0 min 0 min 202 W/m 12,6 km/h (3 Bft) 97,87 %
26.04.2017 09:08 4,4 C 7,2 C 6,1 C 88 % 0 lf 1010,9 hPa 0,0 l/m 0 min 0 min 199 W/m 10,5 km/h (2 Bft) 95,74 %
26.04.2017 09:10 4,5 C 7,2 C 6,1 C 88 % 0 lf 1010,9 hPa 0,0 l/m 0 min 0 min 201 W/m 8,4 km/h (2 Bft) 95,74 %
26.04.2017 09:12 4,5 C 6,7 C 6,1 C 88 % 0 lf 1010,9 hPa 0,0 l/m 0 min 0 min 205 W/m 6,3 km/h (2 Bft) 95,12 %
26.04.2017 09:14 4,6 C 7,2 C 6,1 C 87 % 0 lf 1010,9 hPa 0,0 l/m 0 min 0 min 202 W/m 6,3 km/h (2 Bft) 95,74 %
26.04.2017 09:16 4,7 C 7,2 C 6,7 C 88 % 0 lf 1010,9 hPa 0,0 l/m 0 min 0 min 203 W/m 6,3 km/h (2 Bft) 96,15 %
26.04.2017 09:18 4,7 C 7,2 C 6,1 C 88 % 0 lf 1010,9 hPa 0,0 l/m 0 min 0 min 207 W/m 8,4 km/h (2 Bft) 93,62 %
26.04.2017 09:20 4,8 C 7,8 C 6,7 C 87 % 0 lf 1010,8 hPa 0,0 l/m 2 min 0 min 229 W/m 8,4 km/h (2 Bft) 93,62 %
26.04.2017 09:22 4,8 C 8,3 C 6,1 C 87 % 0 lf 1010,8 hPa 0,0 l/m 2 min 0 min 255 W/m 10,5 km/h (2 Bft) 93,62 %
26.04.2017 09:24 4,9 C 10,6 C 6,7 C 87 % 0 lf 1010,8 hPa 0,0 l/m 2 min 0 min 288 W/m 10,5 km/h (2 Bft) 95,74 %
26.04.2017 09:26 4,9 C 9,4 C 6,7 C 87 % 0 lf 1010,9 hPa 0,0 l/m 0 min 0 min 218 W/m 8,4 km/h (2 Bft) 93,48 %
26.04.2017 09:28 5,0 C 9,4 C 6,7 C 87 % 0 lf 1010,9 hPa 0,0 l/m 0 min 0 min 187 W/m 10,5 km/h (2 Bft) 95,74 %
26.04.2017 09:30 5,1 C 8,3 C 6,1 C 87 % 0 lf 1010,9 hPa 0,0 l/m 0 min 0 min 176 W/m 8,4 km/h (2 Bft) 95,74 %
26.04.2017 09:32 5,1 C 8,3 C 6,1 C 87 % 0 lf 1010,8 hPa 0,0 l/m 0 min 0 min 213 W/m 8,4 km/h (2 Bft) 95,74 %
26.04.2017 09:34 5,2 C 10,0 C 6,1 C 87 % 0 lf 1010,9 hPa 0,0 l/m 2 min 0 min 308 W/m 14,6 km/h (3 Bft) 95,74 %
26.04.2017 09:36 5,2 C 11,1 C 6,1 C 86 % 0 lf 1010,9 hPa 0,0 l/m 2 min 0 min 286 W/m 10,5 km/h (2 Bft) 93,62 %
26.04.2017 09:38 5,3 C 13,9 C 6,7 C 86 % 0 lf 1010,8 hPa 0,0 l/m 2 min 0 min 445 W/m 6,3 km/h (2 Bft) 95,65 %
26.04.2017 09:40 5,3 C 12,8 C 6,1 C 86 % 0 lf 1010,9 hPa 0,0 l/m 2 min 0 min 406 W/m 12,6 km/h (3 Bft) 95,74 %
26.04.2017 09:42 5,3 C 12,2 C 6,1 C 86 % 0 lf 1010,9 hPa 0,0 l/m 2 min 0 min 267 W/m 10,5 km/h (2 Bft) 95,74 %
26.04.2017 09:44 5,4 C 12,2 C 6,7 C 86 % 0 lf 1010,9 hPa 0,0 l/m 2 min 0 min 379 W/m 10,5 km/h (2 Bft) 93,62 %
26.04.2017 09:46 5,4 C 12,2 C 7,2 C 85 % 0 lf 1010,9 hPa 0,0 l/m 2 min 0 min 350 W/m 10,5 km/h (2 Bft) 95,74 %
26.04.2017 09:48 5,4 C 11,7 C 6,7 C 85 % 0 lf 1010,9 hPa 0,0 l/m 2 min 0 min 358 W/m 10,5 km/h (2 Bft) 95,74 %
26.04.2017 09:50 5,5 C 11,1 C 7,2 C 85 % 0 lf 1010,9 hPa 0,0 l/m 0 min 0 min 256 W/m 8,4 km/h (2 Bft) 95,65 %
26.04.2017 09:52 5,5 C 12,2 C 8,3 C 85 % 0 lf 1010,9 hPa 0,0 l/m 2 min 0 min 331 W/m 10,5 km/h (2 Bft) 100,00 %
26.04.2017 09:54 5,6 C 11,7 C 8,9 C 85 % 0 lf 1011,0 hPa 0,0 l/m 2 min 0 min 341 W/m 6,3 km/h (2 Bft) 100,00 %
26.04.2017 09:56 5,7 C 10,6 C 8,9 C 85 % 0 lf 1010,9 hPa 0,0 l/m 0 min 0 min 238 W/m 6,3 km/h (2 Bft) 97,87 %
26.04.2017 09:58 5,8 C 9,4 C 8,3 C 85 % 0 lf 1011,0 hPa 0,0 l/m 0 min 0 min 209 W/m 8,4 km/h (2 Bft) 100,00 %
26.04.2017 10:00 5,8 C 8,3 C 7,8 C 85 % 0 lf 1011,0 hPa 0,0 l/m 0 min 0 min 215 W/m 14,6 km/h (3 Bft) 100,00 %
26.04.2017 10:02 5,9 C 8,9 C 7,8 C 85 % 0 lf 1011,0 hPa 0,0 l/m 2 min 0 min 291 W/m 8,4 km/h (2 Bft) 100,00 %
26.04.2017 10:04 6,0 C 8,9 C 7,8 C 85 % 0 lf 1011,0 hPa 0,0 l/m 2 min 0 min 276 W/m 10,5 km/h (2 Bft) 100,00 %
26.04.2017 10:06 6,1 C 8,9 C 7,8 C 84 % 0 lf 1011,0 hPa 0,0 l/m 0 min 0 min 228 W/m 8,4 km/h (2 Bft) 100,00 %
26.04.2017 10:08 6,1 C 8,9 C 7,8 C 84 % 0 lf 1011,0 hPa 0,0 l/m 0 min 0 min 222 W/m 14,6 km/h (3 Bft) 95,74 %
26.04.2017 10:10 6,2 C 9,4 C 7,8 C 84 % 0 lf 1011,0 hPa 0,0 l/m 0 min 0 min 269 W/m 10,5 km/h (2 Bft) 100,00 %
26.04.2017 10:12 6,2 C 10,0 C 8,3 C 84 % 0 lf 1011,0 hPa 0,0 l/m 2 min 0 min 345 W/m 12,6 km/h (3 Bft) 100,00 %
26.04.2017 10:14 6,3 C 11,7 C 9,4 C 84 % 0 lf 1011,0 hPa 0,0 l/m 2 min 0 min 397 W/m 12,6 km/h (3 Bft) 100,00 %
26.04.2017 10:16 6,4 C 12,2 C 9,4 C 84 % 0 lf 1011,0 hPa 0,0 l/m 2 min 0 min 481 W/m 8,4 km/h (2 Bft) 100,00 %
26.04.2017 10:18 6,4 C 12,2 C 9,4 C 84 % 0 lf 1011,0 hPa 0,0 l/m 2 min 0 min 389 W/m 10,5 km/h (2 Bft) 100,00 %
26.04.2017 10:20 6,4 C 11,7 C 8,9 C 84 % 0 lf 1011,0 hPa 0,0 l/m 2 min 0 min 358 W/m 8,4 km/h (2 Bft) 97,87 %
26.04.2017 10:22 6,4 C 11,7 C 9,4 C 83 % 0 lf 1011,0 hPa 0,0 l/m 2 min 0 min 738 W/m 14,6 km/h (3 Bft) 100,00 %
26.04.2017 10:24 6,5 C 11,7 C 9,4 C 83 % 0 lf 1011,0 hPa 0,0 l/m 2 min 0 min 629 W/m 14,6 km/h (3 Bft) 97,87 %
26.04.2017 10:26 6,6 C 10,6 C 8,9 C 83 % 0 lf 1011,0 hPa 0,0 l/m 2 min 0 min 629 W/m 14,6 km/h (3 Bft) 97,83 %
26.04.2017 10:28 6,6 C 10,0 C 7,8 C 83 % 0 lf 1011,1 hPa 0,0 l/m 2 min 0 min 605 W/m 14,6 km/h (3 Bft) 100,00 %
26.04.2017 10:30 6,6 C 10,0 C 7,8 C 82 % 0 lf 1011,1 hPa 0,0 l/m 2 min 0 min 611 W/m 12,6 km/h (3 Bft) 100,00 %
26.04.2017 10:32 6,6 C 11,7 C 9,4 C 82 % 0 lf 1011,1 hPa 0,0 l/m 2 min 0 min 686 W/m 10,5 km/h (2 Bft) 97,87 %
26.04.2017 10:34 6,7 C 14,4 C 11,7 C 82 % 0 lf 1011,1 hPa 0,0 l/m 2 min 0 min 649 W/m 10,5 km/h (2 Bft) 100,00 %
26.04.2017 10:36 6,7 C 16,1 C 13,3 C 82 % 0 lf 1011,1 hPa 0,0 l/m 2 min 0 min 652 W/m 14,6 km/h (3 Bft) 100,00 %
26.04.2017 10:38 6,8 C 18,3 C 14,4 C 82 % 0 lf 1011,1 hPa 0,0 l/m 2 min 0 min 656 W/m 16,7 km/h (3 Bft) 100,00 %
26.04.2017 10:40 7,0 C 17,8 C 13,9 C 82 % 0 lf 1011,1 hPa 0,0 l/m 2 min 0 min 660 W/m 10,5 km/h (2 Bft) 97,87 %
26.04.2017 10:42 7,2 C 15,0 C 12,2 C 82 % 0 lf 1011,1 hPa 0,0 l/m 2 min 0 min 719 W/m 12,6 km/h (3 Bft) 97,87 %
26.04.2017 10:44 7,3 C 13,3 C 11,1 C 81 % 0 lf 1011,1 hPa 0,0 l/m 2 min 0 min 543 W/m 14,6 km/h (3 Bft) 97,87 %
26.04.2017 10:46 7,4 C 12,2 C 10,0 C 80 % 0 lf 1011,1 hPa 0,0 l/m 2 min 0 min 318 W/m 14,6 km/h (3 Bft) 97,87 %
26.04.2017 10:48 7,4 C 11,1 C 9,4 C 79 % 0 lf 1011,1 hPa 0,0 l/m 0 min 0 min 253 W/m 14,6 km/h (3 Bft) 97,83 %
26.04.2017 10:50 7,4 C 10,6 C 8,9 C 79 % 0 lf 1011,1 hPa 0,0 l/m 0 min 0 min 214 W/m 12,6 km/h (3 Bft) 95,74 %
26.04.2017 10:52 7,4 C 10,6 C 8,3 C 78 % 0 lf 1011,1 hPa 0,0 l/m 0 min 0 min 180 W/m 10,5 km/h (2 Bft) 95,74 %
26.04.2017 10:54 7,4 C 10,0 C 7,8 C 77 % 0 lf 1011,2 hPa 0,0 l/m 0 min 0 min 160 W/m 10,5 km/h (2 Bft) 95,74 %
26.04.2017 10:56 7,4 C 9,4 C 7,8 C 77 % 0 lf 1011,2 hPa 0,0 l/m 0 min 0 min 157 W/m 14,6 km/h (3 Bft) 89,36 %
26.04.2017 10:58 7,3 C 8,9 C 7,8 C 77 % 0 lf 1011,2 hPa 0,0 l/m 0 min 0 min 171 W/m 18,8 km/h (3 Bft) 95,74 %
26.04.2017 11:00 7,3 C 8,9 C 7,2 C 76 % 0 lf 1011,3 hPa 0,0 l/m 0 min 0 min 186 W/m 16,7 km/h (3 Bft) 95,65 %
26.04.2017 11:02 7,3 C 8,9 C 7,8 C 76 % 0 lf 1011,2 hPa 0,0 l/m 0 min 0 min 205 W/m 10,5 km/h (2 Bft) 93,62 %
26.04.2017 11:04 7,2 C 9,4 C 7,8 C 76 % 0 lf 1011,2 hPa 0,0 l/m 0 min 0 min 265 W/m 14,6 km/h (3 Bft) 97,56 %
26.04.2017 11:06 7,3 C 13,3 C 8,3 C 76 % 0 lf 1011,2 hPa 0,0 l/m 0 min 0 min 316 W/m 14,6 km/h (3 Bft) 95,74 %
26.04.2017 11:08 7,3 C 17,2 C 10,0 C 77 % 0 lf 1011,2 hPa 0,0 l/m 2 min 0 min 730 W/m 12,6 km/h (3 Bft) 89,36 %
26.04.2017 11:10 7,4 C 16,7 C 10,6 C 77 % 0 lf 1011,2 hPa 0,0 l/m 2 min 0 min 930 W/m 14,6 km/h (3 Bft) 95,74 %
26.04.2017 11:12 7,4 C 16,1 C 11,1 C 77 % 0 lf 1011,2 hPa 0,0 l/m 2 min 0 min 564 W/m 10,5 km/h (2 Bft) 93,62 %
26.04.2017 11:14 7,5 C 18,9 C 13,3 C 76 % 0 lf 1011,2 hPa 0,0 l/m 2 min 0 min 820 W/m 14,6 km/h (3 Bft) 95,65 %
26.04.2017 11:16 7,6 C 20,6 C 15,6 C 76 % 0 lf 1011,1 hPa 0,0 l/m 2 min 0 min 947 W/m 12,6 km/h (3 Bft) 94,34 %
26.04.2017 11:18 7,8 C 21,7 C 16,1 C 77 % 0 lf 1011,2 hPa 0,0 l/m 2 min 0 min 726 W/m 14,6 km/h (3 Bft) 93,62 %
26.04.2017 11:20 7,9 C 22,8 C 16,7 C 75 % 0 lf 1011,2 hPa 0,0 l/m 2 min 0 min 957 W/m 10,5 km/h (2 Bft) 95,74 %
26.04.2017 11:22 8,1 C 19,4 C 15,0 C 75 % 0 lf 1011,2 hPa 0,0 l/m 2 min 0 min 641 W/m 12,6 km/h (3 Bft) 95,74 %
26.04.2017 11:24 8,2 C 16,1 C 12,2 C 74 % 0 lf 1011,3 hPa 0,0 l/m 0 min 0 min 201 W/m 10,5 km/h (2 Bft) 95,65 %
26.04.2017 11:26 8,3 C 13,3 C 11,1 C 73 % 0 lf 1011,3 hPa 0,0 l/m 0 min 0 min 200 W/m 10,5 km/h (2 Bft) 93,62 %
26.04.2017 11:28 8,3 C 12,2 C 10,6 C 73 % 0 lf 1011,4 hPa 0,0 l/m 0 min 0 min 211 W/m 14,6 km/h (3 Bft) 95,74 %
26.04.2017 11:30 8,3 C 11,7 C 10,0 C 73 % 0 lf 1011,3 hPa 0,0 l/m 0 min 0 min 213 W/m 16,7 km/h (3 Bft) 93,62 %
26.04.2017 11:32 8,3 C 11,7 C 10,0 C 72 % 0 lf 1011,4 hPa 0,0 l/m 0 min 0 min 213 W/m 20,9 km/h (4 Bft) 95,74 %
26.04.2017 11:34 8,3 C 11,1 C 9,4 C 72 % 0 lf 1011,4 hPa 0,0 l/m 0 min 0 min 182 W/m 14,6 km/h (3 Bft) 93,62 %
26.04.2017 11:36 8,2 C 12,8 C 10,0 C 72 % 0 lf 1011,4 hPa 0,0 l/m 0 min 0 min 229 W/m 12,6 km/h (3 Bft) 95,65 %
26.04.2017 11:38 8,3 C 16,1 C 12,8 C 73 % 0 lf 1011,4 hPa 0,0 l/m 2 min 0 min 704 W/m 10,5 km/h (2 Bft) 95,74 %
26.04.2017 11:40 8,4 C 18,3 C 14,4 C 74 % 0 lf 1011,4 hPa 0,0 l/m 2 min 0 min 890 W/m 10,5 km/h (2 Bft) 93,62 %
26.04.2017 11:42 8,6 C 20,6 C 15,6 C 74 % 0 lf 1011,4 hPa 0,0 l/m 2 min 0 min 920 W/m 10,5 km/h (2 Bft) 97,87 %
26.04.2017 11:44 8,7 C 22,2 C 16,1 C 73 % 0 lf 1011,4 hPa 0,0 l/m 2 min 0 min 930 W/m 14,6 km/h (3 Bft) 95,74 %
26.04.2017 11:46 8,8 C 21,1 C 15,6 C 71 % 0 lf 1011,4 hPa 0,0 l/m 2 min 0 min 928 W/m 16,7 km/h (3 Bft) 93,48 %
26.04.2017 11:48 8,8 C 21,7 C 15,0 C 71 % 0 lf 1011,4 hPa 0,0 l/m 2 min 0 min 944 W/m 12,6 km/h (3 Bft) 95,74 %
26.04.2017 11:50 8,9 C 20,0 C 16,7 C 70 % 0 lf 1011,4 hPa 0,0 l/m 2 min 0 min 981 W/m 6,3 km/h (2 Bft) 95,74 %
26.04.2017 11:52 9,1 C 18,9 C 15,6 C 70 % 0 lf 1011,4 hPa 0,0 l/m 2 min 0 min 912 W/m 12,6 km/h (3 Bft) 97,87 %
26.04.2017 11:54 9,1 C 16,7 C 13,3 C 69 % 0 lf 1011,4 hPa 0,0 l/m 2 min 0 min 806 W/m 16,7 km/h (3 Bft) 93,62 %
26.04.2017 11:56 9,2 C 13,9 C 11,7 C 70 % 0 lf 1011,3 hPa 0,0 l/m 0 min 0 min 190 W/m 16,7 km/h (3 Bft) 95,74 %
26.04.2017 11:58 9,2 C 12,2 C 10,6 C 68 % 0 lf 1011,4 hPa 0,0 l/m 0 min 0 min 166 W/m 10,5 km/h (2 Bft) 95,65 %
26.04.2017 12:00 9,2 C 11,7 C 10,0 C 69 % 0 lf 1011,4 hPa 0,0 l/m 0 min 0 min 156 W/m 10,5 km/h (2 Bft) 93,62 %
26.04.2017 12:02 9,1 C 10,6 C 9,4 C 68 % 0 lf 1011,4 hPa 0,0 l/m 0 min 0 min 163 W/m 10,5 km/h (2 Bft) 95,74 %
26.04.2017 12:04 9,1 C 10,6 C 9,4 C 68 % 0 lf 1011,4 hPa 0,0 l/m 0 min 0 min 168 W/m 10,5 km/h (2 Bft) 95,74 %
26.04.2017 12:06 9,1 C 10,6 C 9,4 C 68 % 0 lf 1011,4 hPa 0,0 l/m 0 min 0 min 173 W/m 6,3 km/h (2 Bft) 91,49 %
26.04.2017 12:08 9,0 C 11,1 C 9,4 C 68 % 0 lf 1011,4 hPa 0,0 l/m 0 min 0 min 193 W/m 4,2 km/h (1 Bft) 100,00 %
26.04.2017 12:10 9,1 C 13,9 C 11,7 C 69 % 0 lf 1011,4 hPa 0,0 l/m 0 min 0 min 283 W/m 6,3 km/h (2 Bft) 94,23 %
26.04.2017 12:12 9,1 C 17,2 C 13,9 C 71 % 0 lf 1011,4 hPa 0,0 l/m 2 min 0 min 914 W/m 8,4 km/h (2 Bft) 93,48 %
26.04.2017 12:14 9,2 C 18,3 C 15,6 C 69 % 0 lf 1011,3 hPa 0,0 l/m 2 min 0 min 914 W/m 10,5 km/h (2 Bft) 97,87 %
26.04.2017 12:16 9,3 C 20,0 C 15,6 C 68 % 0 lf 1011,4 hPa 0,0 l/m 2 min 0 min 916 W/m 14,6 km/h (3 Bft) 97,87 %
26.04.2017 12:18 9,5 C 20,0 C 16,7 C 69 % 0 lf 1011,3 hPa 0,0 l/m 2 min 0 min 919 W/m 10,5 km/h (2 Bft) 95,74 %
26.04.2017 12:20 9,7 C 21,1 C 16,7 C 68 % 0 lf 1011,3 hPa 0,0 l/m 2 min 0 min 925 W/m 8,4 km/h (2 Bft) 97,87 %
26.04.2017 12:22 9,7 C 22,8 C 16,1 C 66 % 0 lf 1011,3 hPa 0,0 l/m 2 min 0 min 928 W/m 10,5 km/h (2 Bft) 97,87 %
26.04.2017 12:24 9,9 C 22,2 C 16,7 C 66 % 0 lf 1011,4 hPa 0,0 l/m 2 min 0 min 970 W/m 10,5 km/h (2 Bft) 97,83 %
26.04.2017 12:26 10,1 C 20,6 C 16,1 C 65 % 0 lf 1011,4 hPa 0,0 l/m 2 min 0 min 1018 W/m 8,4 km/h (2 Bft) 97,87 %
26.04.2017 12:28 10,2 C 18,9 C 15,0 C 64 % 0 lf 1011,3 hPa 0,0 l/m 2 min 0 min 664 W/m 10,5 km/h (2 Bft) 97,87 %
26.04.2017 12:30 10,3 C 17,2 C 14,4 C 64 % 0 lf 1011,3 hPa 0,0 l/m 0 min 0 min 362 W/m 10,5 km/h (2 Bft) 97,87 %
26.04.2017 12:32 10,4 C 15,0 C 13,9 C 64 % 0 lf 1011,3 hPa 0,0 l/m 0 min 0 min 346 W/m 8,4 km/h (2 Bft) 97,87 %
26.04.2017 12:34 10,4 C 13,9 C 12,8 C 64 % 0 lf 1011,2 hPa 0,0 l/m 0 min 0 min 264 W/m 6,3 km/h (2 Bft) 95,74 %
26.04.2017 12:36 10,4 C 13,3 C 12,2 C 63 % 0 lf 1011,3 hPa 0,0 l/m 0 min 0 min 216 W/m 8,4 km/h (2 Bft) 97,83 %
26.04.2017 12:38 10,4 C 12,8 C 11,7 C 61 % 0 lf 1011,4 hPa 0,0 l/m 0 min 2 min 201 W/m 12,6 km/h (3 Bft) 97,87 %
26.04.2017 12:40 10,4 C 12,2 C 11,7 C 62 % 1 lf 1011,3 hPa 0,0 l/m 0 min 0 min 190 W/m 14,6 km/h (3 Bft) 91,49 %
26.04.2017 12:42 10,3 C 11,7 C 10,6 C 61 % 2 lf 1011,3 hPa 0,0 l/m 0 min 2 min 182 W/m 16,7 km/h (3 Bft) 93,62 %
26.04.2017 12:44 10,3 C 11,7 C 10,6 C 61 % 1 lf 1011,4 hPa 0,0 l/m 0 min 2 min 176 W/m 12,6 km/h (3 Bft) 97,87 %
26.04.2017 12:46 10,2 C 11,1 C 10,6 C 61 % 0 lf 1011,4 hPa 0,0 l/m 0 min 0 min 171 W/m 10,5 km/h (2 Bft) 93,48 %
26.04.2017 12:48 10,2 C 11,1 C 10,0 C 62 % 0 lf 1011,3 hPa 0,0 l/m 0 min 0 min 170 W/m 8,4 km/h (2 Bft) 97,87 %
26.04.2017 12:50 10,1 C 11,1 C 10,0 C 62 % 0 lf 1011,4 hPa 0,0 l/m 0 min 0 min 174 W/m 8,4 km/h (2 Bft) 97,87 %
26.04.2017 12:52 10,0 C 11,1 C 10,0 C 62 % 0 lf 1011,3 hPa 0,0 l/m 0 min 0 min 173 W/m 8,4 km/h (2 Bft) 97,87 %
26.04.2017 12:54 10,0 C 11,1 C 9,4 C 62 % 0 lf 1011,3 hPa 0,0 l/m 0 min 0 min 170 W/m 10,5 km/h (2 Bft) 100,00 %
26.04.2017 12:56 9,9 C 11,1 C 9,4 C 61 % 0 lf 1011,3 hPa 0,0 l/m 0 min 0 min 175 W/m 12,6 km/h (3 Bft) 97,87 %
26.04.2017 12:58 9,8 C 12,2 C 10,0 C 62 % 0 lf 1011,4 hPa 0,0 l/m 0 min 0 min 190 W/m 16,7 km/h (3 Bft) 97,83 %
26.04.2017 13:00 9,8 C 13,9 C 10,0 C 62 % 0 lf 1011,4 hPa 0,0 l/m 2 min 0 min 425 W/m 14,6 km/h (3 Bft) 97,87 %
26.04.2017 13:02 9,8 C 17,2 C 10,6 C 62 % 0 lf 1011,4 hPa 0,0 l/m 2 min 0 min 848 W/m 14,6 km/h (3 Bft) 100,00 %
26.04.2017 13:04 9,8 C 19,4 C 11,7 C 63 % 0 lf 1011,3 hPa 0,0 l/m 2 min 0 min 938 W/m 10,5 km/h (2 Bft) 100,00 %
26.04.2017 13:06 9,9 C 21,7 C 12,2 C 62 % 0 lf 1011,3 hPa 0,0 l/m 2 min 0 min 972 W/m 6,3 km/h (2 Bft) 97,87 %
26.04.2017 13:08 10,0 C 23,9 C 12,8 C 62 % 0 lf 1011,3 hPa 0,0 l/m 2 min 0 min 1028 W/m 12,6 km/h (3 Bft) 100,00 %
26.04.2017 13:10 10,1 C 24,4 C 13,9 C 62 % 0 lf 1011,3 hPa 0,0 l/m 2 min 0 min 1077 W/m 12,6 km/h (3 Bft) 100,00 %
26.04.2017 13:12 10,2 C 22,8 C 14,4 C 57 % 0 lf 1011,2 hPa 0,0 l/m 2 min 0 min 830 W/m 10,5 km/h (2 Bft) 100,00 %
26.04.2017 13:14 10,4 C 25,0 C 14,4 C 57 % 0 lf 1011,2 hPa 0,0 l/m 2 min 0 min 830 W/m 8,4 km/h (2 Bft) 100,00 %
26.04.2017 13:16 10,6 C 24,4 C 15,0 C 58 % 0 lf 1011,2 hPa 0,0 l/m 2 min 0 min 830 W/m 12,6 km/h (3 Bft) 95,74 %
26.04.2017 13:18 10,8 C 23,3 C 15,6 C 58 % 0 lf 1011,2 hPa 0,0 l/m 2 min 0 min 1103 W/m 14,6 km/h (3 Bft) 100,00 %
26.04.2017 13:20 11,1 C 18,9 C 15,0 C 57 % 0 lf 1011,2 hPa 0,0 l/m 2 min 0 min 713 W/m 12,6 km/h (3 Bft) 100,00 %
26.04.2017 13:22 11,2 C 17,2 C 13,9 C 56 % 0 lf 1011,2 hPa 0,0 l/m 0 min 0 min 286 W/m 14,6 km/h (3 Bft) 95,65 %
26.04.2017 13:24 11,3 C 15,0 C 12,2 C 55 % 0 lf 1011,3 hPa 0,0 l/m 0 min 0 min 238 W/m 12,6 km/h (3 Bft) 95,74 %
26.04.2017 13:26 11,3 C 14,4 C 11,1 C 55 % 2 lf 1011,3 hPa 0,0 l/m 0 min 2 min 202 W/m 16,7 km/h (3 Bft) 93,62 %
26.04.2017 13:28 11,2 C 12,8 C 7,8 C 57 % 15 lf 1011,3 hPa 0,0 l/m 0 min 2 min 172 W/m 27,2 km/h (4 Bft) 95,74 %
26.04.2017 13:30 11,0 C 11,1 C 6,7 C 60 % 15 lf 1011,4 hPa 0,0 l/m 0 min 2 min 153 W/m 18,8 km/h (3 Bft) 97,87 %
26.04.2017 13:32 10,8 C 10,6 C 6,1 C 62 % 15 lf 1011,4 hPa 0,0 l/m 0 min 2 min 149 W/m 20,9 km/h (4 Bft) 97,87 %
26.04.2017 13:34 10,5 C 10,0 C 6,1 C 64 % 15 lf 1011,4 hPa 0,0 l/m 0 min 2 min 155 W/m 18,8 km/h (3 Bft) 97,83 %
26.04.2017 13:36 10,3 C 10,0 C 6,7 C 65 % 15 lf 1011,4 hPa 0,0 l/m 0 min 2 min 168 W/m 18,8 km/h (3 Bft) 91,49 %
26.04.2017 13:38 10,0 C 9,4 C 6,7 C 66 % 15 lf 1011,4 hPa 0,0 l/m 0 min 2 min 184 W/m 18,8 km/h (3 Bft) 95,74 %
26.04.2017 13:40 9,7 C 10,0 C 7,2 C 66 % 15 lf 1011,5 hPa 0,0 l/m 0 min 2 min 201 W/m 16,7 km/h (3 Bft) 93,62 %
26.04.2017 13:42 9,5 C 10,0 C 6,7 C 67 % 15 lf 1011,5 hPa 0,0 l/m 0 min 2 min 220 W/m 18,8 km/h (3 Bft) 95,74 %
26.04.2017 13:44 9,3 C 10,0 C 7,2 C 66 % 15 lf 1011,5 hPa 0,0 l/m 0 min 2 min 239 W/m 16,7 km/h (3 Bft) 95,65 %
26.04.2017 13:46 9,1 C 10,6 C 7,8 C 67 % 15 lf 1011,5 hPa 0,0 l/m 0 min 0 min 256 W/m 10,5 km/h (2 Bft) 95,74 %
26.04.2017 13:48 9,1 C 11,1 C 7,8 C 68 % 15 lf 1011,4 hPa 0,0 l/m 0 min 0 min 280 W/m 10,5 km/h (2 Bft) 91,49 %
26.04.2017 13:50 8,9 C 11,7 C 8,3 C 68 % 15 lf 1011,4 hPa 0,0 l/m 0 min 0 min 327 W/m 12,6 km/h (3 Bft) 95,74 %
26.04.2017 13:52 8,9 C 14,4 C 8,9 C 69 % 13 lf 1011,5 hPa 0,0 l/m 0 min 0 min 377 W/m 12,6 km/h (3 Bft) 93,62 %
26.04.2017 13:54 8,9 C 17,2 C 10,0 C 69 % 3 lf 1011,5 hPa 0,0 l/m 2 min 0 min 630 W/m 14,6 km/h (3 Bft) 93,62 %
26.04.2017 13:56 9,0 C 19,4 C 10,6 C 69 % 0 lf 1011,5 hPa 0,0 l/m 2 min 0 min 1053 W/m 14,6 km/h (3 Bft) 93,48 %
26.04.2017 13:58 9,1 C 18,3 C 11,1 C 68 % 0 lf 1011,4 hPa 0,0 l/m 2 min 0 min 883 W/m 16,7 km/h (3 Bft) 95,74 %
26.04.2017 14:00 9,2 C 17,2 C 11,7 C 68 % 0 lf 1011,5 hPa 0,0 l/m 0 min 0 min 360 W/m 12,6 km/h (3 Bft) 95,74 %
26.04.2017 14:02 9,3 C 16,7 C 11,7 C 67 % 0 lf 1011,5 hPa 0,0 l/m 0 min 0 min 357 W/m 20,9 km/h (4 Bft) 95,74 %
26.04.2017 14:04 9,4 C 16,1 C 11,7 C 66 % 0 lf 1011,5 hPa 0,0 l/m 0 min 0 min 357 W/m 23,0 km/h (4 Bft) 95,74 %
26.04.2017 14:06 9,5 C 13,9 C 11,1 C 65 % 0 lf 1011,5 hPa 0,0 l/m 0 min 0 min 350 W/m 20,9 km/h (4 Bft) 93,62 %
26.04.2017 14:08 9,6 C 13,3 C 10,6 C 64 % 0 lf 1011,5 hPa 0,0 l/m 0 min 0 min 368 W/m 23,0 km/h (4 Bft) 93,48 %
26.04.2017 14:10 9,6 C 12,8 C 10,6 C 64 % 0 lf 1011,5 hPa 0,0 l/m 2 min 0 min 465 W/m 18,8 km/h (3 Bft) 93,62 %
26.04.2017 14:12 9,6 C 12,2 C 10,6 C 64 % 0 lf 1011,5 hPa 0,0 l/m 0 min 0 min 322 W/m 12,6 km/h (3 Bft) 93,62 %
26.04.2017 14:14 9,6 C 12,8 C 10,6 C 64 % 0 lf 1011,4 hPa 0,0 l/m 0 min 0 min 320 W/m 12,6 km/h (3 Bft) 95,74 %
26.04.2017 14:16 9,6 C 12,8 C 11,1 C 64 % 1 lf 1011,5 hPa 0,0 l/m 0 min 0 min 325 W/m 14,6 km/h (3 Bft) 93,62 %
26.04.2017 14:18 9,6 C 12,8 C 11,1 C 64 % 0 lf 1011,4 hPa 0,0 l/m 0 min 0 min 334 W/m 16,7 km/h (3 Bft) 95,74 %
26.04.2017 14:20 9,6 C 12,8 C 11,1 C 64 % 0 lf 1011,5 hPa 0,0 l/m 0 min 0 min 332 W/m 14,6 km/h (3 Bft) 95,65 %
26.04.2017 14:22 9,6 C 12,2 C 10,6 C 62 % 0 lf 1011,4 hPa 0,0 l/m 0 min 0 min 308 W/m 14,6 km/h (3 Bft) 95,74 %
26.04.2017 14:24 9,6 C 13,9 C 11,1 C 60 % 0 lf 1011,4 hPa 0,0 l/m 0 min 0 min 341 W/m 16,7 km/h (3 Bft) 91,49 %
26.04.2017 14:26 9,6 C 16,7 C 12,8 C 59 % 0 lf 1011,4 hPa 0,0 l/m 2 min 0 min 940 W/m 14,6 km/h (3 Bft) 97,87 %
26.04.2017 14:28 9,6 C 16,1 C 12,8 C 57 % 0 lf 1011,4 hPa 0,0 l/m 2 min 0 min 963 W/m 14,6 km/h (3 Bft) 97,87 %
26.04.2017 14:30 9,6 C 16,7 C 13,3 C 57 % 0 lf 1011,4 hPa 0,0 l/m 2 min 0 min 875 W/m 14,6 km/h (3 Bft) 97,87 %
26.04.2017 14:32 9,7 C 17,2 C 13,3 C 58 % 0 lf 1011,4 hPa 0,0 l/m 2 min 0 min 865 W/m 12,6 km/h (3 Bft) 95,65 %
26.04.2017 14:34 9,7 C 17,2 C 13,9 C 57 % 0 lf 1011,4 hPa 0,0 l/m 2 min 0 min 865 W/m 14,6 km/h (3 Bft) 97,87 %
26.04.2017 14:36 9,8 C 16,7 C 13,3 C 57 % 0 lf 1011,4 hPa 0,0 l/m 2 min 0 min 845 W/m 12,6 km/h (3 Bft) 93,62 %
26.04.2017 14:38 9,8 C 16,7 C 13,3 C 57 % 0 lf 1011,5 hPa 0,0 l/m 2 min 0 min 376 W/m 12,6 km/h (3 Bft) 93,62 %
26.04.2017 14:40 9,9 C 18,9 C 15,6 C 58 % 0 lf 1011,4 hPa 0,0 l/m 2 min 0 min 787 W/m 12,6 km/h (3 Bft) 95,74 %
26.04.2017 14:42 10,1 C 20,0 C 17,8 C 59 % 0 lf 1011,4 hPa 0,0 l/m 2 min 0 min 920 W/m 8,4 km/h (2 Bft) 97,87 %
26.04.2017 14:44 10,2 C 20,6 C 17,2 C 58 % 0 lf 1011,3 hPa 0,0 l/m 2 min 0 min 921 W/m 14,6 km/h (3 Bft) 95,65 %
26.04.2017 14:46 10,3 C 19,4 C 17,8 C 54 % 0 lf 1011,4 hPa 0,0 l/m 2 min 0 min 633 W/m 14,6 km/h (3 Bft) 97,87 %
26.04.2017 14:48 10,4 C 21,1 C 18,9 C 53 % 0 lf 1011,4 hPa 0,0 l/m 2 min 0 min 916 W/m 16,7 km/h (3 Bft) 100,00 %
26.04.2017 14:50 10,5 C 20,0 C 20,0 C 55 % 0 lf 1011,3 hPa 0,0 l/m 2 min 0 min 889 W/m 12,6 km/h (3 Bft) 100,00 %
26.04.2017 14:52 10,7 C 18,9 C 17,8 C 53 % 0 lf 1011,3 hPa 0,0 l/m 2 min 0 min 889 W/m 18,8 km/h (3 Bft) 97,87 %
26.04.2017 14:54 10,7 C 15,6 C 14,4 C 50 % 0 lf 1011,4 hPa 0,0 l/m 2 min 0 min 605 W/m 18,8 km/h (3 Bft) 100,00 %
26.04.2017 14:56 10,7 C 15,0 C 13,9 C 51 % 0 lf 1011,4 hPa 0,0 l/m 2 min 0 min 375 W/m 12,6 km/h (3 Bft) 95,65 %
26.04.2017 14:58 10,8 C 16,7 C 15,0 C 51 % 0 lf 1011,3 hPa 0,0 l/m 2 min 0 min 422 W/m 14,6 km/h (3 Bft) 100,00 %
26.04.2017 15:00 10,8 C 18,3 C 16,7 C 51 % 0 lf 1011,3 hPa 0,0 l/m 2 min 0 min 438 W/m 12,6 km/h (3 Bft) 97,87 %
26.04.2017 15:02 10,8 C 16,7 C 15,0 C 51 % 0 lf 1011,3 hPa 0,0 l/m 0 min 0 min 323 W/m 10,5 km/h (2 Bft) 97,87 %
26.04.2017 15:04 10,8 C 16,7 C 15,0 C 52 % 0 lf 1011,2 hPa 0,0 l/m 0 min 0 min 266 W/m 14,6 km/h (3 Bft) 95,74 %
26.04.2017 15:06 10,9 C 16,7 C 14,4 C 52 % 0 lf 1011,3 hPa 0,0 l/m 2 min 0 min 593 W/m 14,6 km/h (3 Bft) 100,00 %
26.04.2017 15:08 10,8 C 14,4 C 12,8 C 52 % 0 lf 1011,3 hPa 0,0 l/m 0 min 0 min 168 W/m 16,7 km/h (3 Bft) 100,00 %
26.04.2017 15:10 10,8 C 13,9 C 11,7 C 51 % 0 lf 1011,3 hPa 0,0 l/m 0 min 0 min 159 W/m 16,7 km/h (3 Bft) 100,00 %
26.04.2017 15:12 10,8 C 14,4 C 12,2 C 51 % 0 lf 1011,3 hPa 0,0 l/m 0 min 0 min 153 W/m 16,7 km/h (3 Bft) 97,87 %
26.04.2017 15:14 10,8 C 13,3 C 11,1 C 51 % 0 lf 1011,4 hPa 0,0 l/m 0 min 0 min 153 W/m 10,5 km/h (2 Bft) 95,74 %
26.04.2017 15:16 10,7 C 14,4 C 12,8 C 53 % 0 lf 1011,3 hPa 0,0 l/m 0 min 0 min 148 W/m 18,8 km/h (3 Bft) 95,74 %
26.04.2017 15:18 10,7 C 17,2 C 15,0 C 53 % 0 lf 1011,4 hPa 0,0 l/m 2 min 0 min 818 W/m 16,7 km/h (3 Bft) 95,65 %
26.04.2017 15:20 10,7 C 19,4 C 17,8 C 53 % 0 lf 1011,3 hPa 0,0 l/m 2 min 0 min 820 W/m 8,4 km/h (2 Bft) 97,87 %
26.04.2017 15:22 10,8 C 18,9 C 18,9 C 54 % 0 lf 1011,3 hPa 0,0 l/m 2 min 0 min 817 W/m 12,6 km/h (3 Bft) 97,87 %
26.04.2017 15:24 10,9 C 20,0 C 20,0 C 55 % 0 lf 1011,3 hPa 0,0 l/m 2 min 0 min 807 W/m 8,4 km/h (2 Bft) 97,87 %
26.04.2017 15:26 11,0 C 20,0 C 20,6 C 54 % 0 lf 1011,2 hPa 0,0 l/m 2 min 0 min 838 W/m 6,3 km/h (2 Bft) 95,74 %
26.04.2017 15:28 11,2 C 21,7 C 21,1 C 55 % 0 lf 1011,3 hPa 0,0 l/m 2 min 0 min 876 W/m 14,6 km/h (3 Bft) 93,62 %
26.04.2017 15:30 11,3 C 21,1 C 18,3 C 51 % 0 lf 1011,3 hPa 0,0 l/m 2 min 0 min 779 W/m 8,4 km/h (2 Bft) 97,83 %
26.04.2017 15:32 11,4 C 21,1 C 18,3 C 53 % 0 lf 1011,3 hPa 0,0 l/m 2 min 0 min 800 W/m 10,5 km/h (2 Bft) 97,87 %
26.04.2017 15:34 11,5 C 19,4 C 16,7 C 54 % 0 lf 1011,3 hPa 0,0 l/m 2 min 0 min 595 W/m 12,6 km/h (3 Bft) 97,87 %
26.04.2017 15:36 11,6 C 17,8 C 15,6 C 54 % 0 lf 1011,3 hPa 0,0 l/m 0 min 0 min 267 W/m 12,6 km/h (3 Bft) 95,74 %
26.04.2017 15:38 11,7 C 16,7 C 14,4 C 52 % 0 lf 1011,3 hPa 0,0 l/m 0 min 0 min 258 W/m 8,4 km/h (2 Bft) 97,87 %
26.04.2017 15:40 11,7 C 15,6 C 12,8 C 50 % 0 lf 1011,3 hPa 0,0 l/m 0 min 0 min 239 W/m 8,4 km/h (2 Bft) 95,74 %
26.04.2017 15:42 11,7 C 14,4 C 12,8 C 49 % 0 lf 1011,3 hPa 0,0 l/m 0 min 0 min 226 W/m 2,1 km/h (1 Bft) 95,65 %
26.04.2017 15:44 11,7 C 13,9 C 12,2 C 50 % 0 lf 1011,3 hPa 0,0 l/m 0 min 0 min 223 W/m 12,6 km/h (3 Bft) 97,87 %
26.04.2017 15:46 11,7 C 13,9 C 12,2 C 51 % 0 lf 1011,3 hPa 0,0 l/m 0 min 0 min 222 W/m 14,6 km/h (3 Bft) 95,74 %
26.04.2017 15:48 11,7 C 13,3 C 11,7 C 51 % 0 lf 1011,4 hPa 0,0 l/m 0 min 0 min 225 W/m 16,7 km/h (3 Bft) 97,87 %
26.04.2017 15:50 11,6 C 12,8 C 11,1 C 51 % 0 lf 1011,4 hPa 0,0 l/m 0 min 0 min 221 W/m 14,6 km/h (3 Bft) 91,49 %
26.04.2017 15:52 11,5 C 12,8 C 10,6 C 52 % 0 lf 1011,3 hPa 0,0 l/m 0 min 0 min 211 W/m 20,9 km/h (4 Bft) 91,49 %
26.04.2017 15:54 11,4 C 12,2 C 10,6 C 53 % 0 lf 1011,4 hPa 0,0 l/m 0 min 0 min 201 W/m 16,7 km/h (3 Bft) 93,48 %
26.04.2017 15:56 11,3 C 12,2 C 10,0 C 55 % 0 lf 1011,4 hPa 0,0 l/m 0 min 0 min 201 W/m 20,9 km/h (4 Bft) 95,74 %
26.04.2017 15:58 11,1 C 11,7 C 9,4 C 55 % 0 lf 1011,4 hPa 0,0 l/m 0 min 0 min 178 W/m 20,9 km/h (4 Bft) 89,36 %
26.04.2017 16:00 10,9 C 11,1 C 9,4 C 55 % 0 lf 1011,3 hPa 0,0 l/m 0 min 0 min 157 W/m 23,0 km/h (4 Bft) 95,74 %
26.04.2017 16:02 10,8 C 11,1 C 9,4 C 56 % 0 lf 1011,3 hPa 0,0 l/m 0 min 0 min 163 W/m 16,7 km/h (3 Bft) 95,74 %
26.04.2017 16:04 10,7 C 11,1 C 9,4 C 56 % 0 lf 1011,4 hPa 0,0 l/m 0 min 0 min 177 W/m 8,4 km/h (2 Bft) 89,36 %
26.04.2017 16:06 10,6 C 11,1 C 10,0 C 57 % 0 lf 1011,3 hPa 0,0 l/m 0 min 0 min 196 W/m 14,6 km/h (3 Bft) 95,65 %
26.04.2017 16:08 10,4 C 11,7 C 10,0 C 58 % 0 lf 1011,4 hPa 0,0 l/m 0 min 0 min 219 W/m 16,7 km/h (3 Bft) 95,74 %
26.04.2017 16:10 10,4 C 12,2 C 10,0 C 58 % 0 lf 1011,4 hPa 0,0 l/m 0 min 0 min 242 W/m 16,7 km/h (3 Bft) 93,62 %
26.04.2017 16:12 10,3 C 12,2 C 10,6 C 59 % 0 lf 1011,4 hPa 0,0 l/m 0 min 0 min 265 W/m 20,9 km/h (4 Bft) 93,62 %
26.04.2017 16:14 10,3 C 12,2 C 10,6 C 58 % 0 lf 1011,4 hPa 0,0 l/m 0 min 0 min 277 W/m 16,7 km/h (3 Bft) 95,74 %
26.04.2017 16:16 10,2 C 12,8 C 11,1 C 58 % 0 lf 1011,4 hPa 0,0 l/m 0 min 0 min 300 W/m 14,6 km/h (3 Bft) 95,65 %
26.04.2017 16:18 10,2 C 13,3 C 11,1 C 59 % 0 lf 1011,5 hPa 0,0 l/m 2 min 0 min 348 W/m 14,6 km/h (3 Bft) 95,74 %
26.04.2017 16:20 10,2 C 14,4 C 11,7 C 58 % 0 lf 1011,4 hPa 0,0 l/m 0 min 0 min 277 W/m 18,8 km/h (3 Bft) 93,62 %
26.04.2017 16:22 10,2 C 15,6 C 12,2 C 57 % 0 lf 1011,4 hPa 0,0 l/m 0 min 0 min 307 W/m 18,8 km/h (3 Bft) 91,49 %
26.04.2017 16:24 10,3 C 16,7 C 12,8 C 57 % 0 lf 1011,4 hPa 0,0 l/m 2 min 0 min 689 W/m 12,6 km/h (3 Bft) 93,62 %
26.04.2017 16:26 10,3 C 17,2 C 13,3 C 57 % 0 lf 1011,4 hPa 0,0 l/m 2 min 0 min 664 W/m 20,9 km/h (4 Bft) 93,62 %
26.04.2017 16:28 10,4 C 16,7 C 12,8 C 57 % 0 lf 1011,5 hPa 0,0 l/m 2 min 0 min 561 W/m 10,5 km/h (2 Bft) 95,65 %
26.04.2017 16:30 10,4 C 17,8 C 13,3 C 57 % 0 lf 1011,4 hPa 0,0 l/m 2 min 0 min 515 W/m 14,6 km/h (3 Bft) 93,62 %
26.04.2017 16:32 10,5 C 16,7 C 12,8 C 55 % 0 lf 1011,5 hPa 0,0 l/m 2 min 0 min 515 W/m 16,7 km/h (3 Bft) 93,62 %
26.04.2017 16:34 10,6 C 15,6 C 12,2 C 55 % 0 lf 1011,5 hPa 0,0 l/m 0 min 0 min 271 W/m 10,5 km/h (2 Bft) 97,87 %
26.04.2017 16:36 10,6 C 14,4 C 11,7 C 55 % 0 lf 1011,5 hPa 0,0 l/m 0 min 0 min 222 W/m 18,8 km/h (3 Bft) 95,74 %
26.04.2017 16:38 10,6 C 13,3 C 11,1 C 55 % 0 lf 1011,5 hPa 0,0 l/m 0 min 0 min 224 W/m 18,8 km/h (3 Bft) 91,49 %
26.04.2017 16:40 10,6 C 12,8 C 11,1 C 55 % 0 lf 1011,6 hPa 0,0 l/m 0 min 0 min 228 W/m 18,8 km/h (3 Bft) 95,65 %
26.04.2017 16:42 10,6 C 12,8 C 11,1 C 55 % 0 lf 1011,5 hPa 0,0 l/m 0 min 0 min 218 W/m 18,8 km/h (3 Bft) 93,62 %
26.04.2017 16:44 10,6 C 12,8 C 11,1 C 55 % 0 lf 1011,5 hPa 0,0 l/m 0 min 0 min 213 W/m 14,6 km/h (3 Bft) 95,74 %
26.04.2017 16:46 10,6 C 14,4 C 11,7 C 55 % 0 lf 1011,5 hPa 0,0 l/m 2 min 0 min 325 W/m 10,5 km/h (2 Bft) 95,74 %
26.04.2017 16:48 10,6 C 16,1 C 12,2 C 55 % 0 lf 1011,5 hPa 0,0 l/m 2 min 0 min 659 W/m 12,6 km/h (3 Bft) 95,74 %
26.04.2017 16:50 10,7 C 16,7 C 12,2 C 55 % 0 lf 1011,6 hPa 0,0 l/m 2 min 0 min 611 W/m 12,6 km/h (3 Bft) 95,74 %
26.04.2017 16:52 10,7 C 17,2 C 12,2 C 55 % 0 lf 1011,6 hPa 0,0 l/m 2 min 0 min 497 W/m 10,5 km/h (2 Bft) 95,65 %
26.04.2017 16:54 10,7 C 16,1 C 11,7 C 54 % 0 lf 1011,5 hPa 0,0 l/m 2 min 0 min 517 W/m 12,6 km/h (3 Bft) 93,62 %
26.04.2017 16:56 10,7 C 15,0 C 11,7 C 55 % 0 lf 1011,5 hPa 0,0 l/m 2 min 0 min 278 W/m 10,5 km/h (2 Bft) 93,62 %
26.04.2017 16:58 10,7 C 14,4 C 11,7 C 54 % 0 lf 1011,5 hPa 0,0 l/m 0 min 0 min 250 W/m 16,7 km/h (3 Bft) 95,74 %
26.04.2017 17:00 10,7 C 13,9 C 11,7 C 54 % 0 lf 1011,5 hPa 0,0 l/m 0 min 0 min 258 W/m 10,5 km/h (2 Bft) 97,87 %
26.04.2017 17:02 10,7 C 14,4 C 11,7 C 54 % 0 lf 1011,5 hPa 0,0 l/m 2 min 0 min 309 W/m 14,6 km/h (3 Bft) 97,87 %
26.04.2017 17:04 10,7 C 15,6 C 11,7 C 55 % 0 lf 1011,5 hPa 0,0 l/m 2 min 0 min 563 W/m 16,7 km/h (3 Bft) 91,30 %
26.04.2017 17:06 10,8 C 16,1 C 12,2 C 55 % 0 lf 1011,6 hPa 0,0 l/m 2 min 0 min 740 W/m 16,7 km/h (3 Bft) 97,87 %
26.04.2017 17:08 10,8 C 15,6 C 12,2 C 54 % 0 lf 1011,7 hPa 0,0 l/m 2 min 0 min 532 W/m 14,6 km/h (3 Bft) 95,74 %
26.04.2017 17:10 10,8 C 14,4 C 11,7 C 54 % 0 lf 1011,7 hPa 0,0 l/m 2 min 0 min 270 W/m 14,6 km/h (3 Bft) 97,87 %
26.04.2017 17:12 10,8 C 13,9 C 11,7 C 54 % 0 lf 1011,6 hPa 0,0 l/m 0 min 0 min 250 W/m 16,7 km/h (3 Bft) 95,74 %
26.04.2017 17:14 10,8 C 13,3 C 11,7 C 55 % 0 lf 1011,7 hPa 0,0 l/m 0 min 0 min 235 W/m 12,6 km/h (3 Bft) 100,00 %
26.04.2017 17:16 10,8 C 12,8 C 11,1 C 55 % 0 lf 1011,7 hPa 0,0 l/m 0 min 0 min 212 W/m 23,0 km/h (4 Bft) 97,83 %
26.04.2017 17:18 10,7 C 12,2 C 10,6 C 55 % 0 lf 1011,7 hPa 0,0 l/m 0 min 0 min 189 W/m 25,1 km/h (4 Bft) 100,00 %
26.04.2017 17:20 10,7 C 11,7 C 10,0 C 55 % 0 lf 1011,7 hPa 0,0 l/m 0 min 0 min 164 W/m 18,8 km/h (3 Bft) 97,87 %
26.04.2017 17:22 10,6 C 11,1 C 10,0 C 55 % 0 lf 1011,7 hPa 0,0 l/m 0 min 0 min 141 W/m 14,6 km/h (3 Bft) 100,00 %
26.04.2017 17:24 10,5 C 11,1 C 9,4 C 55 % 0 lf 1011,6 hPa 0,0 l/m 0 min 0 min 130 W/m 12,6 km/h (3 Bft) 100,00 %
26.04.2017 17:26 10,4 C 11,1 C 9,4 C 56 % 0 lf 1011,6 hPa 0,0 l/m 0 min 0 min 129 W/m 14,6 km/h (3 Bft) 97,87 %
26.04.2017 17:28 10,3 C 11,1 C 9,4 C 56 % 0 lf 1011,6 hPa 0,0 l/m 0 min 0 min 137 W/m 10,5 km/h (2 Bft) 95,65 %
26.04.2017 17:30 10,3 C 11,1 C 9,4 C 56 % 0 lf 1011,6 hPa 0,0 l/m 0 min 0 min 149 W/m 8,4 km/h (2 Bft) 100,00 %
26.04.2017 17:32 10,2 C 11,1 C 9,4 C 57 % 0 lf 1011,6 hPa 0,0 l/m 0 min 0 min 145 W/m 10,5 km/h (2 Bft) 100,00 %
26.04.2017 17:34 10,2 C 11,1 C 9,4 C 57 % 0 lf 1011,6 hPa 0,0 l/m 0 min 0 min 126 W/m 16,7 km/h (3 Bft) 100,00 %
26.04.2017 17:36 10,1 C 11,1 C 9,4 C 57 % 0 lf 1011,5 hPa 0,0 l/m 0 min 0 min 112 W/m 14,6 km/h (3 Bft) 100,00 %
26.04.2017 17:38 10,1 C 10,6 C 8,9 C 57 % 0 lf 1011,5 hPa 0,0 l/m 0 min 0 min 104 W/m 14,6 km/h (3 Bft) 100,00 %
26.04.2017 17:40 10,1 C 10,6 C 8,9 C 57 % 0 lf 1011,6 hPa 0,0 l/m 0 min 0 min 98 W/m 12,6 km/h (3 Bft) 100,00 %
26.04.2017 17:42 10,0 C 10,6 C 8,9 C 57 % 0 lf 1011,6 hPa 0,0 l/m 0 min 0 min 95 W/m 14,6 km/h (3 Bft) 97,87 %
26.04.2017 17:44 9,9 C 10,6 C 8,9 C 57 % 0 lf 1011,6 hPa 0,0 l/m 0 min 0 min 91 W/m 8,4 km/h (2 Bft) 100,00 %
26.04.2017 17:46 9,9 C 10,6 C 8,9 C 57 % 0 lf 1011,6 hPa 0,0 l/m 0 min 0 min 91 W/m 10,5 km/h (2 Bft) 100,00 %
26.04.2017 17:48 9,9 C 10,6 C 8,9 C 57 % 0 lf 1011,6 hPa 0,0 l/m 0 min 0 min 90 W/m 12,6 km/h (3 Bft) 100,00 %
26.04.2017 17:50 9,9 C 10,6 C 8,9 C 57 % 0 lf 1011,6 hPa 0,0 l/m 0 min 0 min 88 W/m 10,5 km/h (2 Bft) 97,83 %
26.04.2017 17:52 9,9 C 10,6 C 8,9 C 58 % 0 lf 1011,6 hPa 0,0 l/m 0 min 0 min 87 W/m 8,4 km/h (2 Bft) 100,00 %
26.04.2017 17:54 9,8 C 10,6 C 8,9 C 57 % 0 lf 1011,5 hPa 0,0 l/m 0 min 0 min 83 W/m 8,4 km/h (2 Bft) 100,00 %
26.04.2017 17:56 9,8 C 10,6 C 8,3 C 58 % 0 lf 1011,6 hPa 0,0 l/m 0 min 0 min 78 W/m 10,5 km/h (2 Bft) 100,00 %
26.04.2017 17:58 9,8 C 10,6 C 8,3 C 58 % 0 lf 1011,6 hPa 0,0 l/m 0 min 0 min 78 W/m 8,4 km/h (2 Bft) 100,00 %
26.04.2017 18:00 9,8 C 10,6 C 8,3 C 58 % 0 lf 1011,6 hPa 0,0 l/m 0 min 0 min 83 W/m 4,2 km/h (1 Bft) 100,00 %
26.04.2017 18:02 9,8 C 10,6 C 8,3 C 58 % 0 lf 1011,5 hPa 0,0 l/m 0 min 0 min 82 W/m 4,2 km/h (1 Bft) 97,83 %
26.04.2017 18:04 9,8 C 10,6 C 8,3 C 58 % 0 lf 1011,5 hPa 0,0 l/m 0 min 0 min 81 W/m 6,3 km/h (2 Bft) 100,00 %
26.04.2017 18:06 9,7 C 10,6 C 8,3 C 59 % 0 lf 1011,6 hPa 0,0 l/m 0 min 0 min 80 W/m 4,2 km/h (1 Bft) 95,74 %
26.04.2017 18:08 9,7 C 10,0 C 8,3 C 59 % 0 lf 1011,6 hPa 0,0 l/m 0 min 0 min 82 W/m 2,1 km/h (1 Bft) 100,00 %
26.04.2017 18:10 9,7 C 10,6 C 8,3 C 59 % 0 lf 1011,6 hPa 0,0 l/m 0 min 0 min 88 W/m 2,1 km/h (1 Bft) 95,74 %
26.04.2017 18:12 9,7 C 10,6 C 8,3 C 60 % 0 lf 1011,5 hPa 0,0 l/m 0 min 0 min 90 W/m 4,2 km/h (1 Bft) 95,74 %
26.04.2017 18:14 9,7 C 10,6 C 8,9 C 60 % 0 lf 1011,6 hPa 0,0 l/m 0 min 0 min 94 W/m 4,2 km/h (1 Bft) 100,00 %
26.04.2017 18:16 9,7 C 10,6 C 8,9 C 60 % 0 lf 1011,6 hPa 0,0 l/m 0 min 0 min 98 W/m 4,2 km/h (1 Bft) 100,00 %
26.04.2017 18:18 9,7 C 10,6 C 8,9 C 60 % 0 lf 1011,5 hPa 0,0 l/m 0 min 0 min 104 W/m 6,3 km/h (2 Bft) 97,87 %
26.04.2017 18:20 9,7 C 10,6 C 8,9 C 60 % 0 lf 1011,6 hPa 0,0 l/m 0 min 0 min 103 W/m 10,5 km/h (2 Bft) 100,00 %
26.04.2017 18:22 9,7 C 10,6 C 8,9 C 59 % 0 lf 1011,5 hPa 0,0 l/m 0 min 0 min 103 W/m 10,5 km/h (2 Bft) 100,00 %
26.04.2017 18:24 9,7 C 10,6 C 9,4 C 59 % 0 lf 1011,6 hPa 0,0 l/m 0 min 0 min 105 W/m 8,4 km/h (2 Bft) 97,87 %
26.04.2017 18:26 9,7 C 10,6 C 9,4 C 59 % 0 lf 1011,6 hPa 0,0 l/m 0 min 0 min 102 W/m 14,6 km/h (3 Bft) 97,83 %
26.04.2017 18:28 9,7 C 10,6 C 8,9 C 59 % 0 lf 1011,6 hPa 0,0 l/m 0 min 0 min 100 W/m 12,6 km/h (3 Bft) 95,74 %
26.04.2017 18:30 9,7 C 10,6 C 8,9 C 59 % 0 lf 1011,7 hPa 0,0 l/m 0 min 0 min 106 W/m 16,7 km/h (3 Bft) 93,62 %
26.04.2017 18:32 9,7 C 10,6 C 8,9 C 59 % 0 lf 1011,6 hPa 0,0 l/m 0 min 0 min 143 W/m 10,5 km/h (2 Bft) 93,62 %
26.04.2017 18:34 9,7 C 10,6 C 8,9 C 60 % 0 lf 1011,7 hPa 0,0 l/m 0 min 0 min 146 W/m 10,5 km/h (2 Bft) 95,74 %
26.04.2017 18:36 9,7 C 10,6 C 8,9 C 59 % 0 lf 1011,6 hPa 0,0 l/m 2 min 0 min 184 W/m 10,5 km/h (2 Bft) 93,62 %
26.04.2017 18:38 9,7 C 10,6 C 8,9 C 59 % 0 lf 1011,6 hPa 0,0 l/m 2 min 0 min 244 W/m 12,6 km/h (3 Bft) 95,65 %
26.04.2017 18:40 9,7 C 11,1 C 9,4 C 59 % 0 lf 1011,6 hPa 0,0 l/m 2 min 0 min 290 W/m 6,3 km/h (2 Bft) 95,74 %
26.04.2017 18:42 9,7 C 11,1 C 9,4 C 59 % 0 lf 1011,5 hPa 0,0 l/m 2 min 0 min 299 W/m 6,3 km/h (2 Bft) 93,62 %
26.04.2017 18:44 9,7 C 11,1 C 8,9 C 59 % 0 lf 1011,6 hPa 0,0 l/m 2 min 0 min 307 W/m 6,3 km/h (2 Bft) 91,49 %
26.04.2017 18:46 9,7 C 11,1 C 9,4 C 59 % 0 lf 1011,6 hPa 0,0 l/m 2 min 0 min 307 W/m 8,4 km/h (2 Bft) 91,49 %
26.04.2017 18:48 9,8 C 11,7 C 9,4 C 59 % 0 lf 1011,6 hPa 0,0 l/m 2 min 0 min 302 W/m 10,5 km/h (2 Bft) 89,36 %
26.04.2017 18:50 9,8 C 11,7 C 9,4 C 59 % 0 lf 1011,6 hPa 0,0 l/m 2 min 0 min 294 W/m 12,6 km/h (3 Bft) 93,48 %
26.04.2017 18:52 9,8 C 11,7 C 9,4 C 59 % 0 lf 1011,7 hPa 0,0 l/m 2 min 0 min 273 W/m 14,6 km/h (3 Bft) 93,62 %
26.04.2017 18:54 9,8 C 11,7 C 9,4 C 58 % 0 lf 1011,6 hPa 0,0 l/m 2 min 0 min 269 W/m 18,8 km/h (3 Bft) 91,49 %
26.04.2017 18:56 9,9 C 11,1 C 8,9 C 57 % 0 lf 1011,6 hPa 0,0 l/m 2 min 0 min 258 W/m 18,8 km/h (3 Bft) 91,49 %
26.04.2017 18:58 9,9 C 11,1 C 8,9 C 56 % 0 lf 1011,6 hPa 0,0 l/m 2 min 0 min 244 W/m 20,9 km/h (4 Bft) 93,62 %
26.04.2017 19:00 9,9 C 11,1 C 8,9 C 56 % 0 lf 1011,7 hPa 0,0 l/m 2 min 0 min 227 W/m 14,6 km/h (3 Bft) 93,48 %
26.04.2017 19:02 9,9 C 10,6 C 8,9 C 56 % 0 lf 1011,7 hPa 0,0 l/m 0 min 0 min 125 W/m 16,7 km/h (3 Bft) 93,62 %
26.04.2017 19:04 9,9 C 10,6 C 8,9 C 56 % 0 lf 1011,7 hPa 0,0 l/m 0 min 0 min 74 W/m 14,6 km/h (3 Bft) 93,62 %
26.04.2017 19:06 9,9 C 10,0 C 8,3 C 56 % 0 lf 1011,7 hPa 0,0 l/m 0 min 0 min 73 W/m 14,6 km/h (3 Bft) 91,49 %
26.04.2017 19:08 9,9 C 10,0 C 8,3 C 56 % 0 lf 1011,7 hPa 0,0 l/m 0 min 0 min 67 W/m 12,6 km/h (3 Bft) 91,49 %
26.04.2017 19:10 9,9 C 10,0 C 8,3 C 56 % 0 lf 1011,7 hPa 0,0 l/m 0 min 0 min 67 W/m 12,6 km/h (3 Bft) 93,62 %
26.04.2017 19:12 9,9 C 10,0 C 8,3 C 55 % 0 lf 1011,8 hPa 0,0 l/m 0 min 0 min 64 W/m 12,6 km/h (3 Bft) 91,30 %
26.04.2017 19:14 9,8 C 10,0 C 8,3 C 56 % 0 lf 1011,6 hPa 0,0 l/m 0 min 0 min 62 W/m 6,3 km/h (2 Bft) 95,74 %
26.04.2017 19:16 9,8 C 10,0 C 8,3 C 56 % 0 lf 1011,8 hPa 0,0 l/m 0 min 0 min 60 W/m 14,6 km/h (3 Bft) 95,74 %
26.04.2017 19:18 9,8 C 10,0 C 8,3 C 55 % 0 lf 1011,8 hPa 0,0 l/m 0 min 0 min 59 W/m 12,6 km/h (3 Bft) 100,00 %
26.04.2017 19:20 9,8 C 10,0 C 8,3 C 55 % 0 lf 1011,8 hPa 0,0 l/m 0 min 0 min 65 W/m 8,4 km/h (2 Bft) 100,00 %
26.04.2017 19:22 9,7 C 10,0 C 8,3 C 55 % 0 lf 1011,8 hPa 0,0 l/m 0 min 0 min 71 W/m 10,5 km/h (2 Bft) 97,87 %
26.04.2017 19:24 9,7 C 10,0 C 8,3 C 55 % 0 lf 1011,9 hPa 0,0 l/m 0 min 0 min 72 W/m 10,5 km/h (2 Bft) 100,00 %
26.04.2017 19:26 9,7 C 10,0 C 8,3 C 56 % 0 lf 1011,8 hPa 0,0 l/m 0 min 0 min 67 W/m 14,6 km/h (3 Bft) 97,87 %
26.04.2017 19:28 9,7 C 10,0 C 8,3 C 56 % 0 lf 1011,9 hPa 0,0 l/m 0 min 0 min 61 W/m 10,5 km/h (2 Bft) 97,87 %
26.04.2017 19:30 9,7 C 10,0 C 8,3 C 57 % 0 lf 1011,9 hPa 0,0 l/m 0 min 0 min 53 W/m 12,6 km/h (3 Bft) 93,62 %
26.04.2017 19:32 9,7 C 10,0 C 8,3 C 57 % 0 lf 1011,9 hPa 0,0 l/m 0 min 0 min 50 W/m 10,5 km/h (2 Bft) 100,00 %
26.04.2017 19:34 9,6 C 10,0 C 8,3 C 57 % 0 lf 1011,9 hPa 0,0 l/m 0 min 0 min 49 W/m 12,6 km/h (3 Bft) 97,87 %
26.04.2017 19:36 9,6 C 10,0 C 8,3 C 58 % 0 lf 1012,0 hPa 0,0 l/m 0 min 0 min 50 W/m 18,8 km/h (3 Bft) 95,65 %
26.04.2017 19:38 9,6 C 9,4 C 8,3 C 58 % 0 lf 1012,0 hPa 0,0 l/m 0 min 0 min 54 W/m 14,6 km/h (3 Bft) 97,87 %
26.04.2017 19:40 9,6 C 9,4 C 8,3 C 58 % 0 lf 1012,0 hPa 0,0 l/m 0 min 0 min 56 W/m 18,8 km/h (3 Bft) 97,87 %
26.04.2017 19:42 9,5 C 9,4 C 7,8 C 58 % 0 lf 1012,1 hPa 0,0 l/m 0 min 0 min 55 W/m 18,8 km/h (3 Bft) 97,87 %
26.04.2017 19:44 9,4 C 9,4 C 7,8 C 58 % 0 lf 1012,1 hPa 0,0 l/m 0 min 0 min 63 W/m 14,6 km/h (3 Bft) 97,87 %
26.04.2017 19:46 9,4 C 9,4 C 7,8 C 59 % 0 lf 1012,1 hPa 0,0 l/m 0 min 0 min 70 W/m 18,8 km/h (3 Bft) 97,87 %
26.04.2017 19:48 9,3 C 9,4 C 7,8 C 58 % 0 lf 1012,2 hPa 0,0 l/m 2 min 0 min 77 W/m 23,0 km/h (4 Bft) 97,83 %
26.04.2017 19:50 9,2 C 8,9 C 7,8 C 58 % 0 lf 1012,1 hPa 0,0 l/m 2 min 0 min 74 W/m 23,0 km/h (4 Bft) 97,87 %
26.04.2017 19:52 9,2 C 8,9 C 7,2 C 59 % 0 lf 1012,2 hPa 0,0 l/m 2 min 0 min 70 W/m 18,8 km/h (3 Bft) 97,87 %
26.04.2017 19:54 9,1 C 8,9 C 7,2 C 59 % 0 lf 1012,2 hPa 0,0 l/m 2 min 0 min 68 W/m 18,8 km/h (3 Bft) 97,87 %
26.04.2017 19:56 9,0 C 8,9 C 7,2 C 59 % 0 lf 1012,3 hPa 0,0 l/m 2 min 0 min 65 W/m 14,6 km/h (3 Bft) 95,74 %
26.04.2017 19:58 8,9 C 8,9 C 7,2 C 59 % 0 lf 1012,3 hPa 0,0 l/m 2 min 0 min 57 W/m 12,6 km/h (3 Bft) 97,83 %
26.04.2017 20:00 8,9 C 8,9 C 7,2 C 60 % 0 lf 1012,3 hPa 0,0 l/m 0 min 0 min 50 W/m 14,6 km/h (3 Bft) 95,74 %
26.04.2017 20:02 8,9 C 8,9 C 7,2 C 60 % 0 lf 1012,3 hPa 0,0 l/m 0 min 0 min 40 W/m 14,6 km/h (3 Bft) 95,74 %
26.04.2017 20:04 8,8 C 8,9 C 7,2 C 60 % 0 lf 1012,3 hPa 0,0 l/m 0 min 0 min 38 W/m 16,7 km/h (3 Bft) 97,87 %
26.04.2017 20:06 8,8 C 8,3 C 7,2 C 60 % 0 lf 1012,4 hPa 0,0 l/m 0 min 0 min 37 W/m 14,6 km/h (3 Bft) 95,74 %
26.04.2017 20:08 8,7 C 8,3 C 7,2 C 60 % 0 lf 1012,4 hPa 0,0 l/m 0 min 0 min 39 W/m 12,6 km/h (3 Bft) 95,74 %
26.04.2017 20:10 8,7 C 8,3 C 6,7 C 60 % 0 lf 1012,4 hPa 0,0 l/m 0 min 0 min 36 W/m 14,6 km/h (3 Bft) 97,83 %
26.04.2017 20:12 8,7 C 8,3 C 6,7 C 60 % 0 lf 1012,4 hPa 0,0 l/m 0 min 0 min 34 W/m 16,7 km/h (3 Bft) 95,74 %
26.04.2017 20:14 8,7 C 8,3 C 6,7 C 61 % 0 lf 1012,4 hPa 0,0 l/m 0 min 0 min 32 W/m 16,7 km/h (3 Bft) 97,87 %
26.04.2017 20:16 8,6 C 8,3 C 6,7 C 61 % 0 lf 1012,4 hPa 0,0 l/m 0 min 0 min 30 W/m 16,7 km/h (3 Bft) 97,87 %
26.04.2017 20:18 8,6 C 8,3 C 6,7 C 62 % 0 lf 1012,4 hPa 0,0 l/m 0 min 0 min 28 W/m 12,6 km/h (3 Bft) 97,87 %
26.04.2017 20:20 8,5 C 8,3 C 6,7 C 62 % 0 lf 1012,5 hPa 0,0 l/m 0 min 0 min 26 W/m 14,6 km/h (3 Bft) 93,62 %
26.04.2017 20:22 8,5 C 7,8 C 6,7 C 63 % 0 lf 1012,5 hPa 0,0 l/m 0 min 0 min 25 W/m 16,7 km/h (3 Bft) 97,83 %
26.04.2017 20:24 8,4 C 7,8 C 6,1 C 63 % 0 lf 1012,6 hPa 0,0 l/m 2 min 0 min 25 W/m 16,7 km/h (3 Bft) 95,74 %
26.04.2017 20:26 8,4 C 7,8 C 6,1 C 64 % 0 lf 1012,5 hPa 0,0 l/m 2 min 0 min 25 W/m 14,6 km/h (3 Bft) 97,87 %
26.04.2017 20:28 8,4 C 7,8 C 6,1 C 64 % 0 lf 1012,6 hPa 0,0 l/m 2 min 0 min 22 W/m 14,6 km/h (3 Bft) 95,74 %
26.04.2017 20:30 8,3 C 7,8 C 6,1 C 64 % 0 lf 1012,6 hPa 0,0 l/m 2 min 0 min 20 W/m 16,7 km/h (3 Bft) 97,87 %
26.04.2017 20:32 8,3 C 7,8 C 6,1 C 65 % 0 lf 1012,6 hPa 0,0 l/m 0 min 0 min 17 W/m 16,7 km/h (3 Bft) 97,87 %
26.04.2017 20:34 8,3 C 7,8 C 6,1 C 66 % 0 lf 1012,7 hPa 0,0 l/m 0 min 0 min 14 W/m 12,6 km/h (3 Bft) 95,65 %
26.04.2017 20:36 8,2 C 7,8 C 6,1 C 66 % 0 lf 1012,6 hPa 0,0 l/m 0 min 0 min 13 W/m 12,6 km/h (3 Bft) 93,62 %
26.04.2017 20:38 8,2 C 7,8 C 6,1 C 66 % 0 lf 1012,7 hPa 0,0 l/m 0 min 0 min 12 W/m 12,6 km/h (3 Bft) 97,87 %
26.04.2017 20:40 8,2 C 7,8 C 6,1 C 67 % 0 lf 1012,7 hPa 0,0 l/m 0 min 0 min 11 W/m 16,7 km/h (3 Bft) 97,87 %
26.04.2017 20:42 8,1 C 7,8 C 6,1 C 68 % 0 lf 1012,7 hPa 0,0 l/m 0 min 0 min 11 W/m 20,9 km/h (4 Bft) 95,74 %
26.04.2017 20:44 8,1 C 7,8 C 6,1 C 68 % 0 lf 1012,7 hPa 0,0 l/m 0 min 0 min 10 W/m 16,7 km/h (3 Bft) 95,74 %
26.04.2017 20:46 8,0 C 7,8 C 6,1 C 68 % 0 lf 1012,8 hPa 0,0 l/m 0 min 0 min 9 W/m 14,6 km/h (3 Bft) 97,83 %
26.04.2017 20:48 7,9 C 7,2 C 6,1 C 68 % 0 lf 1012,8 hPa 0,0 l/m 0 min 0 min 9 W/m 16,7 km/h (3 Bft) 97,87 %
26.04.2017 20:50 7,9 C 7,2 C 5,6 C 69 % 0 lf 1012,8 hPa 0,0 l/m 0 min 0 min 8 W/m 12,6 km/h (3 Bft) 93,62 %
26.04.2017 20:52 7,8 C 7,2 C 5,6 C 69 % 0 lf 1012,8 hPa 0,0 l/m 0 min 0 min 7 W/m 14,6 km/h (3 Bft) 97,87 %
26.04.2017 20:54 7,8 C 7,2 C 5,6 C 69 % 0 lf 1012,9 hPa 0,0 l/m 0 min 0 min 7 W/m 12,6 km/h (3 Bft) 91,49 %
26.04.2017 20:56 7,8 C 7,2 C 5,6 C 69 % 0 lf 1012,9 hPa 0,0 l/m 0 min 0 min 7 W/m 16,7 km/h (3 Bft) 97,87 %
26.04.2017 20:58 7,7 C 7,2 C 5,6 C 69 % 0 lf 1013,0 hPa 0,0 l/m 0 min 0 min 5 W/m 12,6 km/h (3 Bft) 97,83 %
26.04.2017 21:00 7,7 C 6,7 C 5,6 C 70 % 0 lf 1013,0 hPa 0,0 l/m 0 min 0 min 5 W/m 10,5 km/h (2 Bft) 95,74 %
26.04.2017 21:02 7,6 C 6,7 C 5,6 C 70 % 0 lf 1013,0 hPa 0,0 l/m 0 min 0 min 5 W/m 10,5 km/h (2 Bft) 97,87 %
26.04.2017 21:04 7,6 C 6,7 C 5,6 C 70 % 0 lf 1013,1 hPa 0,0 l/m 0 min 0 min 5 W/m 14,6 km/h (3 Bft) 97,87 %
26.04.2017 21:06 7,5 C 6,7 C 5,6 C 70 % 0 lf 1013,1 hPa 0,0 l/m 0 min 0 min 0 W/m 16,7 km/h (3 Bft) 95,74 %
26.04.2017 21:08 7,4 C 6,7 C 5,0 C 70 % 0 lf 1013,1 hPa 0,0 l/m 0 min 0 min 5 W/m 12,6 km/h (3 Bft) 97,87 %
26.04.2017 21:10 7,4 C 6,7 C 5,0 C 70 % 0 lf 1013,2 hPa 0,0 l/m 0 min 0 min 5 W/m 14,6 km/h (3 Bft) 95,65 %
26.04.2017 21:12 7,3 C 6,7 C 5,0 C 70 % 0 lf 1013,1 hPa 0,0 l/m 0 min 0 min 3 W/m 14,6 km/h (3 Bft) 95,74 %
26.04.2017 21:14 7,3 C 6,1 C 5,0 C 71 % 0 lf 1013,2 hPa 0,0 l/m 0 min 0 min 0 W/m 6,3 km/h (2 Bft) 95,74 %
26.04.2017 21:16 7,3 C 6,1 C 5,0 C 71 % 0 lf 1013,2 hPa 0,0 l/m 0 min 0 min 3 W/m 10,5 km/h (2 Bft) 100,00 %
26.04.2017 21:18 7,2 C 6,1 C 4,4 C 71 % 0 lf 1013,2 hPa 0,0 l/m 0 min 0 min 1 W/m 6,3 km/h (2 Bft) 97,87 %
26.04.2017 21:20 7,2 C 6,1 C 4,4 C 71 % 0 lf 1013,3 hPa 0,0 l/m 0 min 0 min 0 W/m 8,4 km/h (2 Bft) 93,48 %
26.04.2017 21:22 7,2 C 5,6 C 4,4 C 71 % 0 lf 1013,3 hPa 0,0 l/m 0 min 0 min 0 W/m 8,4 km/h (2 Bft) 93,62 %
26.04.2017 21:24 7,1 C 5,6 C 3,9 C 71 % 0 lf 1013,3 hPa 0,0 l/m 0 min 0 min 0 W/m 6,3 km/h (2 Bft) 93,62 %
26.04.2017 21:26 7,1 C 5,6 C 3,9 C 71 % 0 lf 1013,4 hPa 0,0 l/m 0 min 0 min 0 W/m 10,5 km/h (2 Bft) 95,74 %
26.04.2017 21:28 7,0 C 5,6 C 4,4 C 71 % 0 lf 1013,4 hPa 0,0 l/m 0 min 0 min 0 W/m 8,4 km/h (2 Bft) 95,74 %
26.04.2017 21:30 6,9 C 5,6 C 4,4 C 72 % 0 lf 1013,4 hPa 0,0 l/m 0 min 0 min 0 W/m 6,3 km/h (2 Bft) 93,62 %
26.04.2017 21:32 6,9 C 5,6 C 3,9 C 72 % 0 lf 1013,4 hPa 0,0 l/m 0 min 0 min 0 W/m 6,3 km/h (2 Bft) 97,83 %
26.04.2017 21:34 6,8 C 5,6 C 3,9 C 72 % 0 lf 1013,4 hPa 0,0 l/m 0 min 0 min 0 W/m 6,3 km/h (2 Bft) 95,74 %
26.04.2017 21:36 6,8 C 5,0 C 3,9 C 72 % 0 lf 1013,4 hPa 0,0 l/m 0 min 0 min 0 W/m 8,4 km/h (2 Bft) 91,49 %
26.04.2017 21:38 6,7 C 5,0 C 3,9 C 72 % 0 lf 1013,5 hPa 0,0 l/m 0 min 0 min 0 W/m 4,2 km/h (1 Bft) 95,74 %
26.04.2017 21:40 6,7 C 5,0 C 3,3 C 72 % 0 lf 1013,4 hPa 0,0 l/m 0 min 0 min 0 W/m 2,1 km/h (1 Bft) 95,74 %
26.04.2017 21:42 6,6 C 4,4 C 3,3 C 72 % 0 lf 1013,5 hPa 0,0 l/m 0 min 0 min 0 W/m 4,2 km/h (1 Bft) 93,62 %
26.04.2017 21:44 6,6 C 4,4 C 2,8 C 72 % 0 lf 1013,5 hPa 0,0 l/m 0 min 0 min 0 W/m 4,2 km/h (1 Bft) 95,65 %
26.04.2017 21:46 6,5 C 4,4 C 2,8 C 72 % 0 lf 1013,5 hPa 0,0 l/m 0 min 0 min 0 W/m 4,2 km/h (1 Bft) 95,74 %
26.04.2017 21:48 6,4 C 4,4 C 2,8 C 72 % 0 lf 1013,6 hPa 0,0 l/m 0 min 0 min 0 W/m 4,2 km/h (1 Bft) 93,62 %
26.04.2017 21:50 6,4 C 3,9 C 2,2 C 72 % 0 lf 1013,6 hPa 0,0 l/m 0 min 0 min 0 W/m 4,2 km/h (1 Bft) 95,74 %
26.04.2017 21:52 6,4 C 3,9 C 2,2 C 72 % 0 lf 1013,5 hPa 0,0 l/m 0 min 0 min 3 W/m 4,2 km/h (1 Bft) 95,74 %
26.04.2017 21:54 6,3 C 3,9 C 2,2 C 73 % 0 lf 1013,6 hPa 0,0 l/m 0 min 0 min 5 W/m 2,1 km/h (1 Bft) 95,74 %
26.04.2017 21:56 6,2 C 3,9 C 2,2 C 73 % 0 lf 1013,6 hPa 0,0 l/m 0 min 0 min 4 W/m 2,1 km/h (1 Bft) 93,48 %
26.04.2017 21:58 6,2 C 3,3 C 1,7 C 73 % 0 lf 1013,6 hPa 0,0 l/m 0 min 0 min 0 W/m 2,1 km/h (1 Bft) 93,62 %
26.04.2017 22:00 6,1 C 3,3 C 1,7 C 73 % 0 lf 1013,6 hPa 0,0 l/m 0 min 0 min 0 W/m 2,1 km/h (1 Bft) 95,74 %
26.04.2017 22:02 6,1 C 3,3 C 1,7 C 73 % 0 lf 1013,6 hPa 0,0 l/m 0 min 0 min 0 W/m 2,1 km/h (1 Bft) 93,62 %
26.04.2017 22:04 6,0 C 3,3 C 1,7 C 73 % 0 lf 1013,7 hPa 0,0 l/m 0 min 0 min 3 W/m 0,0 km/h (0 Bft) 97,87 %
26.04.2017 22:06 5,9 C 3,3 C 1,7 C 74 % 0 lf 1013,7 hPa 0,0 l/m 0 min 0 min 5 W/m 0,0 km/h (0 Bft) 95,74 %
26.04.2017 22:08 5,9 C 3,3 C 1,7 C 74 % 0 lf 1013,7 hPa 0,0 l/m 0 min 0 min 5 W/m 0,0 km/h (0 Bft) 97,83 %
26.04.2017 22:10 5,8 C 3,3 C 1,7 C 74 % 0 lf 1013,7 hPa 0,0 l/m 0 min 0 min 5 W/m 0,0 km/h (0 Bft) 95,74 %
26.04.2017 22:12 5,7 C 3,3 C 1,7 C 74 % 0 lf 1013,7 hPa 0,0 l/m 0 min 0 min 5 W/m 0,0 km/h (0 Bft) 100,00 %
26.04.2017 22:14 5,7 C 3,3 C 1,7 C 74 % 0 lf 1013,7 hPa 0,0 l/m 0 min 0 min 0 W/m 4,2 km/h (1 Bft) 100,00 %
26.04.2017 22:16 5,6 C 3,3 C 1,7 C 75 % 0 lf 1013,7 hPa 0,0 l/m 0 min 0 min 0 W/m 4,2 km/h (1 Bft) 100,00 %
26.04.2017 22:18 5,6 C 3,3 C 1,7 C 75 % 0 lf 1013,8 hPa 0,0 l/m 0 min 0 min 0 W/m 2,1 km/h (1 Bft) 93,62 %
26.04.2017 22:20 5,5 C 3,3 C 1,7 C 75 % 0 lf 1013,9 hPa 0,0 l/m 0 min 0 min 2 W/m 2,1 km/h (1 Bft) 97,83 %
26.04.2017 22:22 5,4 C 3,3 C 1,7 C 75 % 0 lf 1013,9 hPa 0,0 l/m 0 min 0 min 4 W/m 2,1 km/h (1 Bft) 97,87 %
26.04.2017 22:24 5,4 C 3,3 C 1,7 C 75 % 0 lf 1013,9 hPa 0,0 l/m 0 min 0 min 5 W/m 4,2 km/h (1 Bft) 97,87 %
26.04.2017 22:26 5,3 C 3,3 C 1,7 C 76 % 0 lf 1013,9 hPa 0,0 l/m 0 min 0 min 2 W/m 4,2 km/h (1 Bft) 97,87 %
26.04.2017 22:28 5,3 C 3,3 C 1,7 C 76 % 0 lf 1013,9 hPa 0,0 l/m 0 min 0 min 4 W/m 6,3 km/h (2 Bft) 100,00 %
26.04.2017 22:30 5,2 C 3,3 C 1,7 C 76 % 0 lf 1013,9 hPa 0,0 l/m 0 min 0 min 5 W/m 4,2 km/h (1 Bft) 97,83 %
26.04.2017 22:32 5,1 C 3,3 C 1,7 C 76 % 0 lf 1013,9 hPa 0,0 l/m 0 min 0 min 5 W/m 6,3 km/h (2 Bft) 97,87 %
26.04.2017 22:34 5,1 C 2,8 C 1,7 C 76 % 0 lf 1013,9 hPa 0,0 l/m 0 min 0 min 5 W/m 6,3 km/h (2 Bft) 97,87 %
26.04.2017 22:36 5,0 C 2,8 C 1,1 C 77 % 0 lf 1013,9 hPa 0,0 l/m 0 min 0 min 5 W/m 4,2 km/h (1 Bft) 95,74 %
26.04.2017 22:38 4,9 C 2,8 C 1,1 C 77 % 0 lf 1013,9 hPa 0,0 l/m 0 min 0 min 4 W/m 4,2 km/h (1 Bft) 97,87 %
26.04.2017 22:40 4,9 C 2,8 C 1,1 C 77 % 0 lf 1013,9 hPa 0,0 l/m 0 min 0 min 0 W/m 4,2 km/h (1 Bft) 95,74 %
26.04.2017 22:42 4,8 C 2,8 C 1,1 C 77 % 0 lf 1013,9 hPa 0,0 l/m 0 min 0 min 0 W/m 2,1 km/h (1 Bft) 93,48 %
26.04.2017 22:44 4,8 C 2,8 C 1,1 C 77 % 0 lf 1013,9 hPa 0,0 l/m 0 min 0 min 0 W/m 2,1 km/h (1 Bft) 95,74 %
26.04.2017 22:46 4,7 C 2,8 C 1,1 C 77 % 0 lf 1013,9 hPa 0,0 l/m 0 min 0 min 0 W/m 2,1 km/h (1 Bft) 97,87 %
26.04.2017 22:48 4,7 C 2,8 C 1,1 C 77 % 0 lf 1013,9 hPa 0,0 l/m 0 min 0 min 0 W/m 4,2 km/h (1 Bft) 95,74 %
26.04.2017 22:50 4,6 C 2,8 C 1,1 C 78 % 0 lf 1014,0 hPa 0,0 l/m 0 min 0 min 0 W/m 4,2 km/h (1 Bft) 97,87 %
26.04.2017 22:52 4,6 C 2,8 C 1,1 C 78 % 0 lf 1013,9 hPa 0,0 l/m 0 min 0 min 0 W/m 0,0 km/h (0 Bft) 95,74 %
26.04.2017 22:54 4,5 C 2,8 C 1,7 C 78 % 0 lf 1014,0 hPa 0,0 l/m 0 min 0 min 0 W/m 0,0 km/h (0 Bft) 97,83 %
26.04.2017 22:56 4,5 C 2,8 C 1,7 C 78 % 0 lf 1014,0 hPa 0,0 l/m 0 min 0 min 0 W/m 0,0 km/h (0 Bft) 97,87 %
26.04.2017 22:58 4,4 C 2,8 C 1,7 C 78 % 0 lf 1014,0 hPa 0,0 l/m 0 min 0 min 0 W/m 0,0 km/h (0 Bft) 91,49 %
26.04.2017 23:00 4,4 C 2,8 C 1,7 C 78 % 0 lf 1014,1 hPa 0,0 l/m 0 min 0 min 0 W/m 0,0 km/h (0 Bft) 100,00 %
26.04.2017 23:02 4,3 C 2,8 C 1,7 C 78 % 0 lf 1014,0 hPa 0,0 l/m 0 min 0 min 0 W/m 0,0 km/h (0 Bft) 97,87 %
26.04.2017 23:04 4,3 C 2,8 C 1,7 C 78 % 0 lf 1014,0 hPa 0,0 l/m 0 min 0 min 0 W/m 0,0 km/h (0 Bft) 100,00 %
26.04.2017 23:06 4,3 C 2,8 C 1,7 C 79 % 0 lf 1014,0 hPa 0,0 l/m 0 min 0 min 0 W/m 0,0 km/h (0 Bft) 98,00 %
26.04.2017 23:08 4,2 C 2,8 C 1,7 C 79 % 0 lf 1014,0 hPa 0,0 l/m 0 min 0 min 0 W/m 0,0 km/h (0 Bft) 97,83 %
26.04.2017 23:10 4,2 C 2,8 C 1,7 C 79 % 0 lf 1014,0 hPa 0,0 l/m 0 min 0 min 0 W/m 0,0 km/h (0 Bft) 100,00 %
26.04.2017 23:12 4,2 C 2,8 C 1,1 C 79 % 0 lf 1014,0 hPa 0,0 l/m 0 min 0 min 0 W/m 0,0 km/h (0 Bft) 97,87 %
26.04.2017 23:14 4,2 C 2,8 C 1,1 C 79 % 0 lf 1014,1 hPa 0,0 l/m 0 min 0 min 0 W/m 2,1 km/h (1 Bft) 100,00 %
26.04.2017 23:16 4,1 C 2,8 C 1,1 C 79 % 0 lf 1014,1 hPa 0,0 l/m 0 min 0 min 0 W/m 2,1 km/h (1 Bft) 97,83 %
26.04.2017 23:18 4,1 C 2,8 C 1,1 C 79 % 0 lf 1014,1 hPa 0,0 l/m 0 min 0 min 0 W/m 2,1 km/h (1 Bft) 100,00 %
26.04.2017 23:20 4,1 C 2,8 C 1,1 C 80 % 0 lf 1014,1 hPa 0,0 l/m 0 min 0 min 0 W/m 0,0 km/h (0 Bft) 97,87 %
26.04.2017 23:22 4,1 C 2,8 C 1,1 C 80 % 0 lf 1014,1 hPa 0,0 l/m 0 min 0 min 0 W/m 0,0 km/h (0 Bft) 100,00 %
26.04.2017 23:24 4,0 C 2,2 C 1,1 C 80 % 0 lf 1014,1 hPa 0,0 l/m 0 min 0 min 0 W/m 0,0 km/h (0 Bft) 95,74 %
26.04.2017 23:26 4,0 C 2,2 C 1,1 C 80 % 0 lf 1014,2 hPa 0,0 l/m 0 min 0 min 0 W/m 0,0 km/h (0 Bft) 97,87 %
26.04.2017 23:28 3,9 C 2,2 C 1,1 C 80 % 0 lf 1014,1 hPa 0,0 l/m 0 min 0 min 0 W/m 0,0 km/h (0 Bft) 97,83 %
26.04.2017 23:30 3,9 C 2,2 C 1,1 C 80 % 0 lf 1014,1 hPa 0,0 l/m 0 min 0 min 0 W/m 0,0 km/h (0 Bft) 100,00 %
26.04.2017 23:32 3,9 C 2,2 C 1,1 C 80 % 0 lf 1014,1 hPa 0,0 l/m 0 min 0 min 0 W/m 0,0 km/h (0 Bft) 95,74 %
26.04.2017 23:34 3,9 C 2,2 C 1,1 C 80 % 0 lf 1014,1 hPa 0,0 l/m 0 min 0 min 0 W/m 0,0 km/h (0 Bft) 100,00 %
26.04.2017 23:36 3,9 C 2,2 C 1,7 C 80 % 0 lf 1014,1 hPa 0,0 l/m 0 min 0 min 0 W/m 0,0 km/h (0 Bft) 100,00 %
26.04.2017 23:38 3,8 C 2,2 C 1,7 C 81 % 0 lf 1014,1 hPa 0,0 l/m 0 min 0 min 0 W/m 0,0 km/h (0 Bft) 100,00 %
26.04.2017 23:40 3,8 C 2,2 C 1,7 C 81 % 0 lf 1014,2 hPa 0,0 l/m 0 min 0 min 0 W/m 0,0 km/h (0 Bft) 95,65 %
26.04.2017 23:42 3,8 C 2,2 C 1,7 C 81 % 0 lf 1014,1 hPa 0,0 l/m 0 min 0 min 0 W/m 0,0 km/h (0 Bft) 97,87 %
26.04.2017 23:44 3,8 C 2,8 C 2,2 C 81 % 0 lf 1014,2 hPa 0,0 l/m 0 min 0 min 0 W/m 4,2 km/h (1 Bft) 93,62 %
26.04.2017 23:46 3,8 C 2,8 C 2,2 C 81 % 0 lf 1014,1 hPa 0,0 l/m 0 min 0 min 0 W/m 0,0 km/h (0 Bft) 97,87 %
26.04.2017 23:48 3,8 C 2,8 C 2,2 C 81 % 0 lf 1014,2 hPa 0,0 l/m 0 min 0 min 0 W/m 0,0 km/h (0 Bft) 91,49 %
26.04.2017 23:50 3,7 C 2,8 C 2,2 C 81 % 0 lf 1014,2 hPa 0,0 l/m 0 min 0 min 0 W/m 0,0 km/h (0 Bft) 93,62 %
26.04.2017 23:52 3,7 C 3,3 C 2,2 C 81 % 0 lf 1014,2 hPa 0,0 l/m 0 min 0 min 0 W/m 0,0 km/h (0 Bft) 95,65 %
26.04.2017 23:54 3,7 C 3,3 C 2,2 C 81 % 0 lf 1014,2 hPa 0,0 l/m 0 min 0 min 0 W/m 0,0 km/h (0 Bft) 97,87 %
26.04.2017 23:56 3,7 C 3,3 C 2,8 C 81 % 0 lf 1014,2 hPa 0,0 l/m 0 min 0 min 0 W/m 0,0 km/h (0 Bft) 93,62 %
26.04.2017 23:58 3,7 C 3,3 C 2,8 C 81 % 0 lf 1014,2 hPa 0,0 l/m 0 min 0 min 0 W/m 0,0 km/h (0 Bft) 95,74 %
_ Min-Zeit 05:06 02:22 02:18 15:42 00:00 05:46 - - - - 00:00 00:02
Minimum _ 1,1 C 0,6 C -0,6 C 49 % 0 lf 1009,7 hPa - - - - 0,0 km/h (0 Bft) 9,09 %
_ Max-Zeit 15:38 13:14 15:28 04:00 13:28 23:26 00:00 07:02 12:38 13:18 13:28 00:04
Maximum _ 11,7 C 25,0 C 21,1 C 90 % 15 lf 1014,2 hPa 0,0 l/m 2 min 2 min 1103 W/m 27,2 km/h
N-NO (4 Bft)
100,00 %
Durchschnitt _ 6,0 C 7,7 C 5,7 C 74 % 0 lf 1011,2 hPa #0,0 l/m #6:02 h #26 min. 230 W/m 9,8 km/h (2 Bft) 96,38 %
© 2017 W. Hausmann